Observation data for JA Ranch on 05/25/2019      Previous  Date  Next       Current Mesonet Observations  Soil Data  Daily Summary Page  Observations in Plain Language
KPD3 250500Z 03005KT 16/16 A2997 RMK A01 T01600158  RH  099%=      5-min Rain = 0
KPD3 250501Z 03006KT 16/16 A2996 RMK A01 T01590157  RH  099%=      5-min Rain = 0
KPD3 250502Z 04008KT 16/16 A2996 RMK A01 T01590157  RH  099%=      5-min Rain = 0
KPD3 250503Z 04008KT 16/16 A2996 RMK A01 T01590157  RH  099%=      5-min Rain = 0
KPD3 250504Z 04006KT 16/16 A2996 RMK A01 T01590157  RH  099%=      5-min Rain = 0
KPD3 250505Z 04005KT 16/16 A2997 RMK A01 T01590157  RH  099%=      5-min Rain = 0
KPD3 250506Z 05006KT 16/16 A2997 RMK A01 T01590158  RH  099%=      5-min Rain = 0
KPD3 250507Z 05005KT 16/16 A2997 RMK A01 T01590158  RH  099%=      5-min Rain = 0
KPD3 250508Z 05005KT 16/16 A2997 RMK A01 T01600158  RH  099%=      5-min Rain = 0
KPD3 250509Z 06005KT 16/16 A2997 RMK A01 T01600159  RH  099%=      5-min Rain = 0
KPD3 250510Z 06005KT 16/16 A2997 RMK A01 T01600159  RH  099%=      5-min Rain = 0
KPD3 250511Z 07007KT 16/16 A2997 RMK A01 T01600159  RH  099%=      5-min Rain = 0
KPD3 250512Z 06008KT 16/16 A2997 RMK A01 T01610159  RH  099%=      5-min Rain = 0
KPD3 250513Z 07008KT 16/16 A2997 RMK A01 T01610159  RH  099%=      5-min Rain = 0
KPD3 250514Z 07008KT 16/16 A2997 RMK A01 T01610160  RH  099%=      5-min Rain = 0
KPD3 250515Z 07008KT 16/16 A2997 RMK A01 T01620160  RH  099%=      5-min Rain = 0
KPD3 250516Z 07007KT 16/16 A2997 RMK A01 T01620160  RH  099%=      5-min Rain = 0
KPD3 250517Z 07007KT 16/16 A2997 RMK A01 T01620160  RH  099%=      5-min Rain = 0
KPD3 250518Z 07006KT 16/16 A2997 RMK A01 T01620160  RH  099%=      5-min Rain = 0
KPD3 250519Z 07007KT 16/16 A2996 RMK A01 T01620161  RH  099%=      5-min Rain = 0
KPD3 250520Z 08007KT 16/16 A2997 RMK A01 T01630161  RH  099%=      5-min Rain = 0
KPD3 250521Z 08006KT 16/16 A2997 RMK A01 T01630161  RH  099%=      5-min Rain = 0
KPD3 250522Z 07006KT 16/16 A2997 RMK A01 T01630161  RH  099%=      5-min Rain = 0
KPD3 250523Z 08005KT 16/16 A2997 RMK A01 T01640161  RH  098%=      5-min Rain = 0
KPD3 250524Z 08004KT 16/16 A2997 RMK A01 T01640161  RH  098%=      5-min Rain = 0
KPD3 250525Z 08003KT 16/16 A2997 RMK A01 T01640161  RH  098%=      5-min Rain = 0
KPD3 250526Z 09004KT 16/16 A2997 RMK A01 T01640161  RH  098%=      5-min Rain = 0
KPD3 250527Z 09004KT 16/16 A2997 RMK A01 T01630160  RH  098%=      5-min Rain = 0
KPD3 250528Z 09005KT 16/16 A2997 RMK A01 T01640160  RH  098%=      5-min Rain = 0
KPD3 250529Z 09004KT 16/16 A2997 RMK A01 T01630160  RH  098%=      5-min Rain = 0
KPD3 250530Z 09004KT 16/16 A2997 RMK A01 T01640160  RH  098%=      5-min Rain = 0
KPD3 250531Z 09004KT 16/16 A2997 RMK A01 T01630159  RH  097%=      5-min Rain = 0
KPD3 250532Z 10004KT 16/16 A2997 RMK A01 T01640159  RH  097%=      5-min Rain = 0
KPD3 250533Z 10004KT 16/16 A2998 RMK A01 T01640159  RH  097%=      5-min Rain = 0
KPD3 250534Z 10003KT 16/16 A2997 RMK A01 T01640159  RH  097%=      5-min Rain = 0
KPD3 250535Z 09003KT 16/16 A2997 RMK A01 T01630159  RH  097%=      5-min Rain = 0
KPD3 250536Z 09002KT 16/16 A2997 RMK A01 T01640159  RH  097%=      5-min Rain = 0
KPD3 250537Z 08002KT 16/16 A2997 RMK A01 T01640159  RH  097%=      5-min Rain = 0
KPD3 250538Z 04000KT 16/16 A2997 RMK A01 T01630158  RH  096%=      5-min Rain = 0
KPD3 250539Z 33001KT 16/16 A2998 RMK A01 T01620156  RH  096%=      5-min Rain = 0
KPD3 250540Z 33001KT 16/16 A2998 RMK A01 T01610155  RH  096%=      5-min Rain = 0
KPD3 250541Z 32002KT 16/16 A2998 RMK A01 T01610155  RH  096%=      5-min Rain = 0
KPD3 250542Z 31003KT 16/16 A2998 RMK A01 T01610155  RH  097%=      5-min Rain = 0
KPD3 250543Z 31003KT 16/16 A2998 RMK A01 T01610155  RH  097%=      5-min Rain = 0
KPD3 250544Z 32003KT 16/16 A2998 RMK A01 T01600155  RH  097%=      5-min Rain = 0
KPD3 250545Z 31003KT 16/16 A2998 RMK A01 T01600155  RH  097%=      5-min Rain = 0
KPD3 250546Z 31004KT 16/16 A2998 RMK A01 T01600155  RH  097%=      5-min Rain = 0
KPD3 250547Z 31005KT 16/16 A2998 RMK A01 T01600155  RH  097%=      5-min Rain = 0
KPD3 250548Z 33003KT 16/16 A2998 RMK A01 T01600156  RH  097%=      5-min Rain = 0
KPD3 250549Z 31003KT 16/16 A2998 RMK A01 T01610157  RH  098%=      5-min Rain = 0
KPD3 250550Z 31003KT 16/16 A2998 RMK A01 T01630159  RH  098%=      5-min Rain = 0
KPD3 250551Z 30003KT 17/16 A2997 RMK A01 T01650161  RH  098%=      5-min Rain = 0
KPD3 250552Z 36002KT 17/16 A2998 RMK A01 T01660162  RH  097%=      5-min Rain = 0
KPD3 250553Z 08003KT 17/16 A2998 RMK A01 T01680162  RH  097%=      5-min Rain = 0
KPD3 250554Z 10003KT 17/16 A2998 RMK A01 T01690162  RH  095%=      5-min Rain = 0
KPD3 250555Z 04001KT 17/16 A2998 RMK A01 T01720161  RH  093%=      5-min Rain = 0
KPD3 250556Z 09003KT 17/16 A2998 RMK A01 T01740161  RH  092%=      5-min Rain = 0
KPD3 250557Z 06003KT 18/16 A2998 RMK A01 T01750160  RH  091%=      5-min Rain = 0
KPD3 250558Z 10004KT 18/16 A2998 RMK A01 T01760160  RH  091%=      5-min Rain = 0
KPD3 250559Z 07002KT 18/16 A2997 RMK A01 T01750160  RH  090%=      5-min Rain = 0
KPD3 250600Z 10002KT 18/16 A2998 RMK A01 T01750159  RH  090%=      5-min Rain = 0
KPD3 250601Z 09003KT 18/16 A2997 RMK A01 T01750159  RH  090%=      5-min Rain = 0
KPD3 250602Z 09003KT 18/16 A2997 RMK A01 T01750159  RH  091%=      5-min Rain = 0
KPD3 250603Z 08003KT 17/16 A2997 RMK A01 T01740159  RH  090%=      5-min Rain = 0
KPD3 250604Z 08004KT 17/16 A2997 RMK A01 T01740159  RH  090%=      5-min Rain = 0
KPD3 250605Z 07004KT 17/16 A2997 RMK A01 T01740158  RH  090%=      5-min Rain = 0
KPD3 250606Z 08004KT 17/16 A2997 RMK A01 T01740159  RH  090%=      5-min Rain = 0
KPD3 250607Z 07004KT 17/16 A2997 RMK A01 T01740158  RH  091%=      5-min Rain = 0
KPD3 250608Z 07004KT 17/16 A2997 RMK A01 T01730158  RH  091%=      5-min Rain = 0
KPD3 250609Z 06004KT 17/16 A2997 RMK A01 T01720158  RH  091%=      5-min Rain = 0
KPD3 250610Z 07005KT 17/16 A2997 RMK A01 T01720158  RH  091%=      5-min Rain = 0
KPD3 250611Z 07005KT 17/16 A2997 RMK A01 T01710157  RH  092%=      5-min Rain = 0
KPD3 250612Z 08004KT 17/16 A2997 RMK A01 T01710157  RH  092%=      5-min Rain = 0
KPD3 250613Z 07004KT 17/16 A2997 RMK A01 T01710157  RH  092%=      5-min Rain = 0
KPD3 250614Z 07004KT 17/16 A2997 RMK A01 T01710157  RH  092%=      5-min Rain = 0
KPD3 250615Z 07003KT 17/16 A2997 RMK A01 T01700157  RH  092%=      5-min Rain = 0
KPD3 250616Z 07003KT 17/16 A2997 RMK A01 T01690157  RH  092%=      5-min Rain = 0
KPD3 250617Z 07003KT 17/16 A2997 RMK A01 T01690157  RH  092%=      5-min Rain = 0
KPD3 250618Z 06004KT 17/16 A2997 RMK A01 T01680156  RH  093%=      5-min Rain = 0
KPD3 250619Z 06004KT 17/16 A2997 RMK A01 T01680157  RH  093%=      5-min Rain = 0
KPD3 250620Z 07004KT 17/16 A2997 RMK A01 T01680156  RH  093%=      5-min Rain = 0
KPD3 250621Z 06004KT 17/16 A2997 RMK A01 T01670156  RH  093%=      5-min Rain = 0
KPD3 250622Z 06003KT 17/16 A2997 RMK A01 T01660155  RH  093%=      5-min Rain = 0
KPD3 250623Z 06003KT 17/16 A2997 RMK A01 T01660155  RH  093%=      5-min Rain = 0
KPD3 250624Z 06003KT 17/16 A2997 RMK A01 T01660155  RH  094%=      5-min Rain = 0
KPD3 250625Z 07003KT 17/16 A2997 RMK A01 T01660155  RH  094%=      5-min Rain = 0
KPD3 250626Z 07003KT 17/16 A2997 RMK A01 T01650155  RH  094%=      5-min Rain = 0
KPD3 250627Z 06003KT 17/16 A2997 RMK A01 T01650155  RH  094%=      5-min Rain = 0
KPD3 250628Z 07003KT 17/16 A2997 RMK A01 T01650155  RH  094%=      5-min Rain = 0
KPD3 250629Z 07003KT 17/16 A2997 RMK A01 T01650155  RH  094%=      5-min Rain = 0
KPD3 250630Z 07002KT 16/16 A2997 RMK A01 T01640155  RH  094%=      5-min Rain = 0
KPD3 250631Z 07002KT 16/15 A2997 RMK A01 T01640154  RH  094%=      5-min Rain = 0
KPD3 250632Z 07002KT 16/15 A2997 RMK A01 T01640154  RH  094%=      5-min Rain = 0
KPD3 250633Z 07002KT 16/15 A2997 RMK A01 T01640154  RH  094%=      5-min Rain = 0
KPD3 250634Z 07003KT 16/15 A2997 RMK A01 T01640154  RH  094%=      5-min Rain = 0
KPD3 250635Z 07002KT 16/15 A2997 RMK A01 T01640154  RH  094%=      5-min Rain = 0
KPD3 250636Z 07002KT 16/15 A2997 RMK A01 T01640154  RH  094%=      5-min Rain = 0
KPD3 250637Z 07002KT 16/15 A2997 RMK A01 T01630153  RH  094%=      5-min Rain = 0
KPD3 250638Z 07002KT 16/15 A2997 RMK A01 T01630153  RH  094%=      5-min Rain = 0
KPD3 250639Z 07002KT 16/15 A2997 RMK A01 T01620153  RH  094%=      5-min Rain = 0
KPD3 250640Z 07002KT 16/15 A2997 RMK A01 T01620153  RH  094%=      5-min Rain = 0
KPD3 250641Z 07003KT 16/15 A2997 RMK A01 T01620153  RH  094%=      5-min Rain = 0
KPD3 250642Z 07003KT 16/15 A2996 RMK A01 T01620153  RH  094%=      5-min Rain = 0
KPD3 250643Z 08003KT 16/15 A2996 RMK A01 T01620153  RH  094%=      5-min Rain = 0
KPD3 250644Z 08003KT 16/15 A2996 RMK A01 T01620152  RH  094%=      5-min Rain = 0
KPD3 250645Z 08003KT 16/15 A2996 RMK A01 T01610152  RH  094%=      5-min Rain = 0
KPD3 250646Z 09002KT 16/15 A2996 RMK A01 T01610151  RH  094%=      5-min Rain = 0
KPD3 250647Z 08002KT 16/15 A2996 RMK A01 T01600151  RH  094%=      5-min Rain = 0
KPD3 250648Z 10002KT 16/15 A2996 RMK A01 T01600151  RH  094%=      5-min Rain = 0
KPD3 250649Z 10002KT 16/15 A2996 RMK A01 T01600151  RH  094%=      5-min Rain = 0
KPD3 250650Z 11002KT 16/15 A2996 RMK A01 T01600151  RH  094%=      5-min Rain = 0
KPD3 250651Z 12001KT 16/15 A2996 RMK A01 T01590150  RH  094%=      5-min Rain = 0
KPD3 250652Z 13001KT 16/15 A2996 RMK A01 T01590150  RH  094%=      5-min Rain = 0
KPD3 250653Z 15001KT 16/15 A2996 RMK A01 T01590150  RH  095%=      5-min Rain = 0
KPD3 250654Z 14001KT 16/15 A2996 RMK A01 T01590151  RH  095%=      5-min Rain = 0
KPD3 250655Z 17001KT 16/15 A2996 RMK A01 T01590150  RH  095%=      5-min Rain = 0
KPD3 250656Z 14001KT 16/15 A2996 RMK A01 T01580150  RH  095%=      5-min Rain = 0
KPD3 250657Z 16000KT 16/15 A2996 RMK A01 T01580150  RH  095%=      5-min Rain = 0
KPD3 250658Z 16000KT 16/15 A2996 RMK A01 T01580150  RH  095%=      5-min Rain = 0
KPD3 250659Z 16000KT 16/15 A2996 RMK A01 T01580150  RH  095%=      5-min Rain = 0
KPD3 250700Z 17001KT 16/15 A2996 RMK A01 T01570149  RH  095%=      5-min Rain = 0
KPD3 250701Z 17001KT 16/15 A2996 RMK A01 T01570150  RH  095%=      5-min Rain = 0
KPD3 250702Z 18001KT 16/15 A2996 RMK A01 T01570150  RH  096%=      5-min Rain = 0
KPD3 250703Z 19001KT 16/15 A2996 RMK A01 T01580151  RH  096%=      5-min Rain = 0
KPD3 250704Z 18001KT 16/15 A2996 RMK A01 T01580151  RH  096%=      5-min Rain = 0
KPD3 250705Z 17001KT 16/15 A2996 RMK A01 T01570150  RH  095%=      5-min Rain = 0
KPD3 250706Z 17001KT 16/15 A2996 RMK A01 T01570150  RH  095%=      5-min Rain = 0
KPD3 250707Z 17001KT 16/15 A2996 RMK A01 T01570150  RH  096%=      5-min Rain = 0
KPD3 250708Z 18001KT 16/15 A2996 RMK A01 T01570151  RH  096%=      5-min Rain = 0
KPD3 250709Z 17001KT 16/15 A2996 RMK A01 T01570151  RH  096%=      5-min Rain = 0
KPD3 250710Z 17001KT 16/15 A2996 RMK A01 T01570151  RH  096%=      5-min Rain = 0
KPD3 250711Z 17001KT 16/15 A2996 RMK A01 T01570151  RH  096%=      5-min Rain = 0
KPD3 250712Z 17001KT 16/15 A2996 RMK A01 T01570151  RH  096%=      5-min Rain = 0
KPD3 250713Z 16001KT 16/15 A2996 RMK A01 T01570151  RH  096%=      5-min Rain = 0
KPD3 250714Z 15001KT 16/15 A2996 RMK A01 T01570152  RH  096%=      5-min Rain = 0
KPD3 250715Z 16001KT 16/15 A2996 RMK A01 T01580153  RH  097%=      5-min Rain = 0
KPD3 250716Z 15001KT 16/15 A2996 RMK A01 T01590154  RH  097%=      5-min Rain = 0
KPD3 250717Z 14001KT 16/16 A2996 RMK A01 T01600155  RH  097%=      5-min Rain = 0
KPD3 250718Z 14001KT 16/16 A2996 RMK A01 T01600156  RH  097%=      5-min Rain = 0
KPD3 250719Z 14002KT 16/16 A2996 RMK A01 T01600155  RH  097%=      5-min Rain = 0
KPD3 250720Z 13002KT 16/16 A2996 RMK A01 T01600156  RH  097%=      5-min Rain = 0
KPD3 250721Z 13002KT 16/16 A2996 RMK A01 T01600156  RH  097%=      5-min Rain = 0
KPD3 250722Z 13002KT 16/16 A2996 RMK A01 T01610157  RH  097%=      5-min Rain = 0
KPD3 250723Z 12003KT 16/16 A2996 RMK A01 T01610157  RH  097%=      5-min Rain = 0
KPD3 250724Z 12003KT 16/16 A2996 RMK A01 T01620158  RH  097%=      5-min Rain = 0
KPD3 250725Z 13003KT 16/16 A2996 RMK A01 T01620158  RH  097%=      5-min Rain = 0
KPD3 250726Z 13004KT 16/16 A2996 RMK A01 T01630158  RH  097%=      5-min Rain = 0
KPD3 250727Z 13004KT 16/16 A2996 RMK A01 T01630159  RH  097%=      5-min Rain = 0
KPD3 250728Z 13004KT 16/16 A2996 RMK A01 T01640159  RH  097%=      5-min Rain = 0
KPD3 250729Z 14004KT 16/16 A2996 RMK A01 T01640159  RH  097%=      5-min Rain = 0
KPD3 250730Z 14004KT 17/16 A2996 RMK A01 T01650159  RH  097%=      5-min Rain = 0
KPD3 250731Z 14004KT 17/16 A2996 RMK A01 T01650160  RH  096%=      5-min Rain = 0
KPD3 250732Z 14004KT 17/16 A2996 RMK A01 T01660160  RH  096%=      5-min Rain = 0
KPD3 250733Z 14004KT 17/16 A2996 RMK A01 T01670161  RH  096%=      5-min Rain = 0
KPD3 250734Z 14004KT 17/16 A2996 RMK A01 T01670162  RH  096%=      5-min Rain = 0
KPD3 250735Z 15004KT 17/16 A2996 RMK A01 T01680162  RH  096%=      5-min Rain = 0
KPD3 250736Z 15005KT 17/16 A2996 RMK A01 T01690162  RH  096%=      5-min Rain = 0
KPD3 250737Z 15004KT 17/16 A2996 RMK A01 T01690163  RH  096%=      5-min Rain = 0
KPD3 250738Z 15004KT 17/16 A2996 RMK A01 T01700163  RH  096%=      5-min Rain = 0
KPD3 250739Z 15004KT 17/16 A2996 RMK A01 T01700163  RH  096%=      5-min Rain = 0
KPD3 250740Z 15005KT 17/16 A2996 RMK A01 T01710164  RH  096%=      5-min Rain = 0
KPD3 250741Z 15006KT 17/16 A2996 RMK A01 T01710164  RH  096%=      5-min Rain = 0
KPD3 250742Z 14005KT 17/17 A2996 RMK A01 T01720165  RH  096%=      5-min Rain = 0
KPD3 250743Z 14006KT 17/17 A2996 RMK A01 T01730165  RH  096%=      5-min Rain = 0
KPD3 250744Z 14006KT 17/17 A2996 RMK A01 T01730166  RH  095%=      5-min Rain = 0
KPD3 250745Z 14006KT 17/17 A2996 RMK A01 T01740167  RH  095%=      5-min Rain = 0
KPD3 250746Z 14006KT 18/17 A2996 RMK A01 T01750167  RH  095%=      5-min Rain = 0
KPD3 250747Z 14007KT 18/17 A2996 RMK A01 T01750168  RH  095%=      5-min Rain = 0
KPD3 250748Z 14007KT 18/17 A2996 RMK A01 T01760168  RH  095%=      5-min Rain = 0
KPD3 250749Z 14008KT 18/17 A2996 RMK A01 T01770169  RH  095%=      5-min Rain = 0
KPD3 250750Z 14008KT 18/17 A2996 RMK A01 T01780169  RH  094%=      5-min Rain = 0
KPD3 250751Z 14007KT 18/17 A2996 RMK A01 T01790169  RH  094%=      5-min Rain = 0
KPD3 250752Z 14008KT 18/17 A2996 RMK A01 T01790169  RH  094%=      5-min Rain = 0
KPD3 250753Z 14009KT 18/17 A2996 RMK A01 T01800169  RH  094%=      5-min Rain = 0
KPD3 250754Z 15009KT 18/17 A2996 RMK A01 T01800169  RH  093%=      5-min Rain = 0
KPD3 250755Z 15009KT 18/17 A2996 RMK A01 T01810169  RH  093%=      5-min Rain = 0
KPD3 250756Z 14009KT 18/17 A2996 RMK A01 T01810169  RH  093%=      5-min Rain = 0
KPD3 250757Z 14009KT 18/17 A2996 RMK A01 T01810169  RH  093%=      5-min Rain = 0
KPD3 250758Z 15009KT 18/17 A2996 RMK A01 T01810169  RH  093%=      5-min Rain = 0
KPD3 250759Z 14009KT 18/17 A2996 RMK A01 T01810169  RH  093%=      5-min Rain = 0
KPD3 250800Z 14009KT 18/17 A2996 RMK A01 T01810169  RH  093%=      5-min Rain = 0
KPD3 250801Z 14010KT 18/17 A2996 RMK A01 T01810169  RH  093%=      5-min Rain = 0
KPD3 250802Z 14009KT 18/17 A2996 RMK A01 T01810169  RH  093%=      5-min Rain = 0
KPD3 250803Z 14008KT 18/17 A2996 RMK A01 T01810169  RH  093%=      5-min Rain = 0
KPD3 250804Z 14008KT 18/17 A2996 RMK A01 T01810169  RH  093%=      5-min Rain = 0
KPD3 250805Z 14011KT 18/17 A2996 RMK A01 T01810169  RH  093%=      5-min Rain = 0
KPD3 250806Z 14011KT 18/17 A2996 RMK A01 T01810169  RH  093%=      5-min Rain = 0
KPD3 250807Z 14010KT 18/17 A2995 RMK A01 T01810169  RH  093%=      5-min Rain = 0
KPD3 250808Z 14010KT 18/17 A2995 RMK A01 T01810169  RH  093%=      5-min Rain = 0
KPD3 250809Z 14009KT 18/17 A2996 RMK A01 T01810169  RH  093%=      5-min Rain = 0
KPD3 250810Z 15009KT 18/17 A2996 RMK A01 T01810169  RH  093%=      5-min Rain = 0
KPD3 250811Z 15010KT 18/17 A2996 RMK A01 T01810169  RH  093%=      5-min Rain = 0
KPD3 250812Z 15010KT 18/17 A2996 RMK A01 T01810169  RH  093%=      5-min Rain = 0
KPD3 250813Z 14009KT 18/17 A2996 RMK A01 T01810169  RH  092%=      5-min Rain = 0
KPD3 250814Z 15009KT 18/17 A2996 RMK A01 T01810169  RH  092%=      5-min Rain = 0
KPD3 250815Z 15009KT 18/17 A2996 RMK A01 T01810169  RH  093%=      5-min Rain = 0
KPD3 250816Z 15010KT 18/17 A2996 RMK A01 T01810169  RH  093%=      5-min Rain = 0
KPD3 250817Z 15009KT 18/17 A2996 RMK A01 T01810169  RH  093%=      5-min Rain = 0
KPD3 250818Z 15010KT 18/17 A2996 RMK A01 T01810169  RH  093%=      5-min Rain = 0
KPD3 250819Z 15010KT 18/17 A2996 RMK A01 T01810169  RH  092%=      5-min Rain = 0
KPD3 250820Z 15009KT 18/17 A2996 RMK A01 T01810169  RH  092%=      5-min Rain = 0
KPD3 250821Z 15011KT 18/17 A2996 RMK A01 T01810169  RH  092%=      5-min Rain = 0
KPD3 250822Z 15009KT 18/17 A2996 RMK A01 T01810168  RH  092%=      5-min Rain = 0
KPD3 250823Z 15009KT 18/17 A2996 RMK A01 T01810168  RH  092%=      5-min Rain = 0
KPD3 250824Z 15008KT 18/17 A2996 RMK A01 T01810169  RH  092%=      5-min Rain = 0
KPD3 250825Z 15007KT 18/17 A2996 RMK A01 T01810169  RH  093%=      5-min Rain = 0
KPD3 250826Z 15007KT 18/17 A2996 RMK A01 T01810169  RH  093%=      5-min Rain = 0
KPD3 250827Z 15007KT 18/17 A2996 RMK A01 T01800169  RH  093%=      5-min Rain = 0
KPD3 250828Z 15008KT 18/17 A2996 RMK A01 T01800169  RH  093%=      5-min Rain = 0
KPD3 250829Z 15008KT 18/17 A2996 RMK A01 T01800169  RH  093%=      5-min Rain = 0
KPD3 250830Z 15008KT 18/17 A2996 RMK A01 T01800169  RH  093%=      5-min Rain = 0
KPD3 250831Z 15009KT 18/17 A2996 RMK A01 T01800169  RH  093%=      5-min Rain = 0
KPD3 250832Z 15009KT 18/17 A2996 RMK A01 T01800169  RH  093%=      5-min Rain = 0
KPD3 250833Z 15009KT 18/17 A2996 RMK A01 T01800169  RH  093%=      5-min Rain = 0
KPD3 250834Z 15009KT 18/17 A2996 RMK A01 T01800169  RH  093%=      5-min Rain = 0
KPD3 250835Z 16008KT 18/17 A2996 RMK A01 T01790169  RH  093%=      5-min Rain = 0
KPD3 250836Z 16007KT 18/17 A2996 RMK A01 T01800169  RH  093%=      5-min Rain = 0
KPD3 250837Z 16007KT 18/17 A2996 RMK A01 T01800169  RH  093%=      5-min Rain = 0
KPD3 250838Z 16007KT 18/17 A2996 RMK A01 T01800169  RH  093%=      5-min Rain = 0
KPD3 250839Z 16008KT 18/17 A2997 RMK A01 T01800169  RH  093%=      5-min Rain = 0
KPD3 250840Z 16007KT 18/17 A2997 RMK A01 T01800169  RH  093%=      5-min Rain = 0
KPD3 250841Z 17007KT 18/17 A2997 RMK A01 T01800169  RH  094%=      5-min Rain = 0
KPD3 250842Z 16007KT 18/17 A2997 RMK A01 T01790169  RH  094%=      5-min Rain = 0
KPD3 250843Z 17007KT 18/17 A2997 RMK A01 T01790169  RH  094%=      5-min Rain = 0
KPD3 250844Z 17007KT 18/17 A2997 RMK A01 T01790169  RH  094%=      5-min Rain = 0
KPD3 250845Z 16006KT 18/17 A2997 RMK A01 T01790169  RH  094%=      5-min Rain = 0
KPD3 250846Z 17006KT 18/17 A2997 RMK A01 T01790169  RH  094%=      5-min Rain = 0
KPD3 250847Z 17006KT 18/17 A2997 RMK A01 T01790170  RH  094%=      5-min Rain = 0
KPD3 250848Z 16007KT 18/17 A2997 RMK A01 T01790170  RH  094%=      5-min Rain = 0
KPD3 250849Z 15007KT 18/17 A2996 RMK A01 T01790170  RH  094%=      5-min Rain = 0
KPD3 250850Z 16007KT 18/17 A2996 RMK A01 T01790170  RH  094%=      5-min Rain = 0
KPD3 250851Z 16007KT 18/17 A2997 RMK A01 T01790170  RH  094%=      5-min Rain = 0
KPD3 250852Z 16008KT 18/17 A2997 RMK A01 T01790170  RH  094%=      5-min Rain = 0
KPD3 250853Z 16007KT 18/17 A2997 RMK A01 T01790169  RH  094%=      5-min Rain = 0
KPD3 250854Z 15007KT 18/17 A2997 RMK A01 T01790170  RH  094%=      5-min Rain = 0
KPD3 250855Z 15007KT 18/17 A2996 RMK A01 T01790170  RH  094%=      5-min Rain = 0
KPD3 250856Z 15007KT 18/17 A2996 RMK A01 T01790170  RH  094%=      5-min Rain = 0
KPD3 250857Z 15007KT 18/17 A2996 RMK A01 T01790169  RH  094%=      5-min Rain = 0
KPD3 250858Z 15007KT 18/17 A2996 RMK A01 T01790170  RH  094%=      5-min Rain = 0
KPD3 250859Z 15007KT 18/17 A2996 RMK A01 T01790169  RH  094%=      5-min Rain = 0
KPD3 250900Z 15007KT 18/17 A2996 RMK A01 T01790170  RH  094%=      5-min Rain = 0
KPD3 250901Z 15007KT 18/17 A2996 RMK A01 T01790170  RH  094%=      5-min Rain = 0
KPD3 250902Z 15006KT 18/17 A2996 RMK A01 T01790170  RH  094%=      5-min Rain = 0
KPD3 250903Z 15006KT 18/17 A2996 RMK A01 T01790170  RH  094%=      5-min Rain = 0
KPD3 250904Z 15007KT 18/17 A2996 RMK A01 T01790170  RH  094%=      5-min Rain = 0
KPD3 250905Z 14007KT 18/17 A2996 RMK A01 T01790170  RH  094%=      5-min Rain = 0
KPD3 250906Z 15007KT 18/17 A2996 RMK A01 T01790170  RH  095%=      5-min Rain = 0
KPD3 250907Z 15006KT 18/17 A2996 RMK A01 T01790170  RH  095%=      5-min Rain = 0
KPD3 250908Z 15007KT 18/17 A2996 RMK A01 T01790170  RH  095%=      5-min Rain = 0
KPD3 250909Z 15007KT 18/17 A2996 RMK A01 T01790170  RH  095%=      5-min Rain = 0
KPD3 250910Z 15007KT 18/17 A2997 RMK A01 T01790170  RH  095%=      5-min Rain = 0
KPD3 250911Z 15007KT 18/17 A2996 RMK A01 T01790170  RH  095%=      5-min Rain = 0
KPD3 250912Z 15006KT 18/17 A2996 RMK A01 T01790170  RH  095%=      5-min Rain = 0
KPD3 250913Z 15007KT 18/17 A2996 RMK A01 T01780169  RH  095%=      5-min Rain = 0
KPD3 250914Z 15006KT 18/17 A2997 RMK A01 T01780169  RH  095%=      5-min Rain = 0
KPD3 250915Z 15008KT 18/17 A2996 RMK A01 T01780170  RH  095%=      5-min Rain = 0
KPD3 250916Z 14006KT 18/17 A2996 RMK A01 T01780170  RH  095%=      5-min Rain = 0
KPD3 250917Z 14006KT 18/17 A2996 RMK A01 T01780170  RH  095%=      5-min Rain = 0
KPD3 250918Z 14007KT 18/17 A2996 RMK A01 T01780170  RH  095%=      5-min Rain = 0
KPD3 250919Z 14006KT 18/17 A2997 RMK A01 T01780170  RH  095%=      5-min Rain = 0
KPD3 250920Z 14007KT 18/17 A2997 RMK A01 T01780170  RH  095%=      5-min Rain = 0
KPD3 250921Z 14006KT 18/17 A2997 RMK A01 T01780170  RH  095%=      5-min Rain = 0
KPD3 250922Z 15007KT 18/17 A2997 RMK A01 T01770169  RH  095%=      5-min Rain = 0
KPD3 250923Z 15005KT 18/17 A2997 RMK A01 T01770169  RH  095%=      5-min Rain = 0
KPD3 250924Z 15006KT 18/17 A2997 RMK A01 T01770170  RH  095%=      5-min Rain = 0
KPD3 250925Z 15006KT 18/17 A2997 RMK A01 T01770169  RH  095%=      5-min Rain = 0
KPD3 250926Z 14005KT 18/17 A2997 RMK A01 T01770170  RH  095%=      5-min Rain = 0
KPD3 250927Z 14006KT 18/17 A2997 RMK A01 T01770169  RH  095%=      5-min Rain = 0
KPD3 250928Z 14005KT 18/17 A2997 RMK A01 T01770169  RH  095%=      5-min Rain = 0
KPD3 250929Z 14006KT 18/17 A2997 RMK A01 T01770169  RH  095%=      5-min Rain = 0
KPD3 250930Z 14005KT 18/17 A2997 RMK A01 T01770170  RH  095%=      5-min Rain = 0
KPD3 250931Z 15004KT 18/17 A2997 RMK A01 T01770169  RH  095%=      5-min Rain = 0
KPD3 250932Z 14004KT 18/17 A2997 RMK A01 T01770170  RH  096%=      5-min Rain = 0
KPD3 250933Z 15004KT 18/17 A2997 RMK A01 T01770170  RH  096%=      5-min Rain = 0
KPD3 250934Z 14005KT 18/17 A2997 RMK A01 T01760170  RH  096%=      5-min Rain = 0
KPD3 250935Z 14006KT 18/17 A2997 RMK A01 T01770170  RH  096%=      5-min Rain = 0
KPD3 250936Z 14005KT 18/17 A2997 RMK A01 T01760170  RH  096%=      5-min Rain = 0
KPD3 250937Z 14005KT 18/17 A2997 RMK A01 T01760170  RH  096%=      5-min Rain = 0
KPD3 250938Z 14005KT 18/17 A2997 RMK A01 T01770170  RH  096%=      5-min Rain = 0
KPD3 250939Z 14004KT 18/17 A2997 RMK A01 T01760170  RH  096%=      5-min Rain = 0
KPD3 250940Z 13004KT 18/17 A2997 RMK A01 T01760170  RH  096%=      5-min Rain = 0
KPD3 250941Z 15005KT 18/17 A2997 RMK A01 T01760170  RH  096%=      5-min Rain = 0
KPD3 250942Z 13005KT 18/17 A2997 RMK A01 T01760170  RH  096%=      5-min Rain = 0
KPD3 250943Z 14005KT 18/17 A2997 RMK A01 T01760169  RH  096%=      5-min Rain = 0
KPD3 250944Z 13006KT 18/17 A2996 RMK A01 T01760169  RH  096%=      5-min Rain = 0
KPD3 250945Z 13006KT 18/17 A2996 RMK A01 T01760170  RH  096%=      5-min Rain = 0
KPD3 250946Z 13005KT 18/17 A2996 RMK A01 T01760170  RH  096%=      5-min Rain = 0
KPD3 250947Z 13005KT 18/17 A2996 RMK A01 T01760170  RH  096%=      5-min Rain = 0
KPD3 250948Z 12006KT 18/17 A2996 RMK A01 T01760170  RH  096%=      5-min Rain = 0
KPD3 250949Z 13006KT 18/17 A2996 RMK A01 T01750169  RH  096%=      5-min Rain = 0
KPD3 250950Z 14007KT 18/17 A2996 RMK A01 T01750170  RH  097%=      5-min Rain = 0
KPD3 250951Z 13005KT 18/17 A2996 RMK A01 T01750170  RH  097%=      5-min Rain = 0
KPD3 250952Z 13006KT 18/17 A2997 RMK A01 T01750169  RH  097%=      5-min Rain = 0
KPD3 250953Z 12005KT 18/17 A2997 RMK A01 T01750169  RH  097%=      5-min Rain = 0
KPD3 250954Z 13006KT 18/17 A2997 RMK A01 T01750170  RH  097%=      5-min Rain = 0
KPD3 250955Z 14006KT 18/17 A2997 RMK A01 T01750169  RH  097%=      5-min Rain = 0
KPD3 250956Z 13006KT 18/17 A2997 RMK A01 T01750170  RH  097%=      5-min Rain = 0
KPD3 250957Z 14006KT 18/17 A2996 RMK A01 T01750170  RH  097%=      5-min Rain = 0
KPD3 250958Z 14006KT 18/17 A2996 RMK A01 T01750170  RH  097%=      5-min Rain = 0
KPD3 250959Z 14006KT 18/17 A2996 RMK A01 T01750170  RH  097%=      5-min Rain = 0
KPD3 251000Z 14006KT 17/17 A2997 RMK A01 T01740169  RH  097%=      5-min Rain = 0
KPD3 251001Z 14006KT 17/17 A2997 RMK A01 T01740170  RH  097%=      5-min Rain = 0
KPD3 251002Z 14006KT 17/17 A2997 RMK A01 T01740170  RH  097%=      5-min Rain = 0
KPD3 251003Z 14007KT 17/17 A2997 RMK A01 T01740170  RH  097%=      5-min Rain = 0
KPD3 251004Z 14006KT 17/17 A2997 RMK A01 T01740170  RH  097%=      5-min Rain = 0
KPD3 251005Z 14006KT 17/17 A2997 RMK A01 T01740170  RH  097%=      5-min Rain = 0
KPD3 251006Z 14007KT 17/17 A2997 RMK A01 T01740170  RH  098%=      5-min Rain = 0
KPD3 251007Z 14006KT 17/17 A2997 RMK A01 T01740170  RH  098%=      5-min Rain = 0
KPD3 251008Z 14006KT 17/17 A2997 RMK A01 T01740170  RH  098%=      5-min Rain = 0
KPD3 251009Z 14007KT 17/17 A2997 RMK A01 T01740170  RH  098%=      5-min Rain = 0
KPD3 251010Z 14006KT 17/17 A2997 RMK A01 T01740170  RH  098%=      5-min Rain = 0
KPD3 251011Z 14007KT 17/17 A2997 RMK A01 T01740170  RH  098%=      5-min Rain = 0
KPD3 251012Z 14007KT 17/17 A2997 RMK A01 T01730170  RH  098%=      5-min Rain = 0
KPD3 251013Z 14006KT 17/17 A2997 RMK A01 T01730170  RH  098%=      5-min Rain = 0
KPD3 251014Z 14005KT 17/17 A2997 RMK A01 T01730170  RH  098%=      5-min Rain = 0
KPD3 251015Z 14006KT 17/17 A2997 RMK A01 T01730170  RH  098%=      5-min Rain = 0
KPD3 251016Z 14006KT 17/17 A2997 RMK A01 T01730170  RH  098%=      5-min Rain = 0
KPD3 251017Z 14006KT 17/17 A2997 RMK A01 T01730170  RH  098%=      5-min Rain = 0
KPD3 251018Z 14007KT 17/17 A2997 RMK A01 T01730171  RH  098%=      5-min Rain = 0
KPD3 251019Z 14006KT 17/17 A2997 RMK A01 T01730170  RH  098%=      5-min Rain = 0
KPD3 251020Z 14007KT 17/17 A2997 RMK A01 T01730170  RH  098%=      5-min Rain = 0
KPD3 251021Z 14006KT 17/17 A2997 RMK A01 T01730171  RH  098%=      5-min Rain = 0
KPD3 251022Z 13005KT 17/17 A2997 RMK A01 T01730170  RH  098%=      5-min Rain = 0
KPD3 251023Z 13006KT 17/17 A2997 RMK A01 T01730171  RH  098%=      5-min Rain = 0
KPD3 251024Z 13006KT 17/17 A2997 RMK A01 T01730171  RH  098%=      5-min Rain = 0
KPD3 251025Z 13006KT 17/17 A2997 RMK A01 T01730171  RH  098%=      5-min Rain = 0
KPD3 251026Z 14005KT 17/17 A2997 RMK A01 T01730171  RH  098%=      5-min Rain = 0
KPD3 251027Z 14005KT 17/17 A2997 RMK A01 T01730171  RH  098%=      5-min Rain = 0
KPD3 251028Z 14005KT 17/17 A2997 RMK A01 T01730171  RH  098%=      5-min Rain = 0
KPD3 251029Z 14005KT 17/17 A2997 RMK A01 T01730171  RH  099%=      5-min Rain = 0
KPD3 251030Z 13005KT 17/17 A2997 RMK A01 T01730171  RH  099%=      5-min Rain = 0
KPD3 251031Z 14005KT 17/17 A2997 RMK A01 T01730171  RH  099%=      5-min Rain = 0
KPD3 251032Z 14005KT 17/17 A2997 RMK A01 T01730171  RH  099%=      5-min Rain = 0
KPD3 251033Z 14006KT 17/17 A2998 RMK A01 T01730171  RH  099%=      5-min Rain = 0
KPD3 251034Z 14006KT 17/17 A2998 RMK A01 T01730171  RH  099%=      5-min Rain = 0
KPD3 251035Z 14006KT 17/17 A2997 RMK A01 T01730171  RH  099%=      5-min Rain = 0
KPD3 251036Z 14006KT 17/17 A2997 RMK A01 T01730171  RH  099%=      5-min Rain = 0
KPD3 251037Z 14006KT 17/17 A2997 RMK A01 T01730171  RH  099%=      5-min Rain = 0
KPD3 251038Z 14005KT 17/17 A2997 RMK A01 T01730171  RH  099%=      5-min Rain = 0
KPD3 251039Z 15006KT 17/17 A2997 RMK A01 T01730171  RH  099%=      5-min Rain = 0
KPD3 251040Z 14006KT 17/17 A2997 RMK A01 T01730171  RH  099%=      5-min Rain = 0
KPD3 251041Z 13006KT 17/17 A2997 RMK A01 T01730171  RH  099%=      5-min Rain = 0
KPD3 251042Z 14005KT 17/17 A2997 RMK A01 T01730171  RH  099%=      5-min Rain = 0
KPD3 251043Z 14006KT 17/17 A2997 RMK A01 T01730171  RH  099%=      5-min Rain = 0
KPD3 251044Z 14006KT 17/17 A2997 RMK A01 T01730171  RH  099%=      5-min Rain = 0
KPD3 251045Z 14006KT 17/17 A2997 RMK A01 T01730171  RH  099%=      5-min Rain = 0
KPD3 251046Z 14007KT 17/17 A2997 RMK A01 T01730171  RH  099%=      5-min Rain = 0
KPD3 251047Z 14007KT 17/17 A2997 RMK A01 T01730171  RH  099%=      5-min Rain = 0
KPD3 251048Z 14007KT 17/17 A2997 RMK A01 T01730171  RH  099%=      5-min Rain = 0
KPD3 251049Z 14006KT 17/17 A2997 RMK A01 T01730171  RH  099%=      5-min Rain = 0
KPD3 251050Z 15006KT 17/17 A2997 RMK A01 T01730171  RH  099%=      5-min Rain = 0
KPD3 251051Z 14006KT 17/17 A2998 RMK A01 T01730171  RH  099%=      5-min Rain = 0
KPD3 251052Z 15006KT 17/17 A2998 RMK A01 T01730172  RH  099%=      5-min Rain = 0
KPD3 251053Z 15007KT 17/17 A2998 RMK A01 T01730171  RH  099%=      5-min Rain = 0
KPD3 251054Z 14006KT 17/17 A2998 RMK A01 T01730171  RH  099%=      5-min Rain = 0
KPD3 251055Z 14008KT 17/17 A2998 RMK A01 T01730171  RH  099%=      5-min Rain = 0
KPD3 251056Z 14007KT 17/17 A2998 RMK A01 T01730171  RH  099%=      5-min Rain = 0
KPD3 251057Z 14006KT 17/17 A2998 RMK A01 T01730171  RH  099%=      5-min Rain = 0
KPD3 251058Z 14005KT 17/17 A2998 RMK A01 T01730171  RH  099%=      5-min Rain = 0
KPD3 251059Z 13006KT 17/17 A2998 RMK A01 T01730171  RH  099%=      5-min Rain = 0
KPD3 251100Z 13006KT 17/17 A2998 RMK A01 T01730172  RH  099%=      5-min Rain = 0
KPD3 251101Z 13007KT 17/17 A2998 RMK A01 T01730172  RH  099%=      5-min Rain = 0
KPD3 251102Z 13006KT 17/17 A2998 RMK A01 T01730171  RH  099%=      5-min Rain = 0
KPD3 251103Z 14005KT 17/17 A2998 RMK A01 T01730172  RH  099%=      5-min Rain = 0
KPD3 251104Z 13005KT 17/17 A2998 RMK A01 T01730172  RH  099%=      5-min Rain = 0
KPD3 251105Z 14005KT 17/17 A2998 RMK A01 T01730171  RH  099%=      5-min Rain = 0
KPD3 251106Z 14004KT 17/17 A2998 RMK A01 T01730172  RH  099%=      5-min Rain = 0
KPD3 251107Z 14005KT 17/17 A2998 RMK A01 T01730172  RH  099%=      5-min Rain = 0
KPD3 251108Z 13006KT 17/17 A2998 RMK A01 T01730172  RH  099%=      5-min Rain = 0
KPD3 251109Z 13005KT 17/17 A2998 RMK A01 T01730171  RH  099%=      5-min Rain = 0
KPD3 251110Z 13006KT 17/17 A2998 RMK A01 T01730172  RH  099%=      5-min Rain = 0
KPD3 251111Z 13005KT 17/17 A2998 RMK A01 T01730172  RH  099%=      5-min Rain = 0
KPD3 251112Z 13005KT 17/17 A2998 RMK A01 T01730172  RH  099%=      5-min Rain = 0
KPD3 251113Z 14005KT 17/17 A2998 RMK A01 T01730172  RH  099%=      5-min Rain = 0
KPD3 251114Z 13005KT 17/17 A2998 RMK A01 T01730172  RH  099%=      5-min Rain = 0
KPD3 251115Z 13005KT 17/17 A2998 RMK A01 T01730172  RH  099%=      5-min Rain = 0
KPD3 251116Z 13005KT 17/17 A2998 RMK A01 T01730172  RH  099%=      5-min Rain = 0
KPD3 251117Z 13004KT 17/17 A2998 RMK A01 T01730172  RH  099%=      5-min Rain = 0
KPD3 251118Z 13005KT 17/17 A2998 RMK A01 T01730172  RH  099%=      5-min Rain = 0
KPD3 251119Z 13005KT 17/17 A2998 RMK A01 T01730172  RH  099%=      5-min Rain = 0
KPD3 251120Z 12005KT 17/17 A2998 RMK A01 T01730172  RH  099%=      5-min Rain = 0
KPD3 251121Z 12005KT 17/17 A2998 RMK A01 T01730172  RH  099%=      5-min Rain = 0
KPD3 251122Z 13005KT 17/17 A2998 RMK A01 T01730172  RH  099%=      5-min Rain = 0
KPD3 251123Z 12004KT 17/17 A2998 RMK A01 T01730172  RH  099%=      5-min Rain = 0
KPD3 251124Z 13005KT 17/17 A2998 RMK A01 T01730172  RH  099%=      5-min Rain = 0
KPD3 251125Z 13005KT 17/17 A2998 RMK A01 T01730172  RH  099%=      5-min Rain = 0
KPD3 251126Z 13004KT 17/17 A2998 RMK A01 T01730172  RH  099%=      5-min Rain = 0
KPD3 251127Z 13005KT 17/17 A2998 RMK A01 T01730172  RH  099%=      5-min Rain = 0
KPD3 251128Z 13005KT 17/17 A2998 RMK A01 T01730172  RH  099%=      5-min Rain = 0
KPD3 251129Z 13005KT 17/17 A2998 RMK A01 T01730172  RH  099%=      5-min Rain = 0
KPD3 251130Z 13004KT 17/17 A2998 RMK A01 T01730172  RH  099%=      5-min Rain = 0
KPD3 251131Z 14004KT 17/17 A2998 RMK A01 T01730172  RH  099%=      5-min Rain = 0
KPD3 251132Z 14004KT 17/17 A2998 RMK A01 T01730172  RH  099%=      5-min Rain = 0
KPD3 251133Z 14003KT 17/17 A2998 RMK A01 T01730172  RH  099%=      5-min Rain = 0
KPD3 251134Z 13005KT 17/17 A2998 RMK A01 T01730172  RH  099%=      5-min Rain = 0
KPD3 251135Z 14005KT 17/17 A2998 RMK A01 T01730173  RH  099%=      5-min Rain = 0
KPD3 251136Z 14005KT 17/17 A2998 RMK A01 T01730172  RH  099%=      5-min Rain = 0
KPD3 251137Z 15004KT 17/17 A2998 RMK A01 T01730172  RH  099%=      5-min Rain = 0
KPD3 251138Z 14005KT 17/17 A2998 RMK A01 T01730172  RH  099%=      5-min Rain = 0
KPD3 251139Z 14005KT 17/17 A2998 RMK A01 T01730172  RH  099%=      5-min Rain = 0
KPD3 251140Z 14004KT 17/17 A2998 RMK A01 T01730172  RH  099%=      5-min Rain = 0
KPD3 251141Z 15004KT 17/17 A2998 RMK A01 T01730173  RH  099%=      5-min Rain = 0
KPD3 251142Z 14005KT 17/17 A2998 RMK A01 T01730172  RH  099%=      5-min Rain = 0
KPD3 251143Z 14005KT 17/17 A2998 RMK A01 T01730173  RH  099%=      5-min Rain = 0
KPD3 251144Z 14005KT 17/17 A2998 RMK A01 T01730172  RH  099%=      5-min Rain = 0
KPD3 251145Z 14005KT 17/17 A2998 RMK A01 T01730172  RH  099%=      5-min Rain = 0
KPD3 251146Z 15004KT 17/17 A2998 RMK A01 T01730173  RH  099%=      5-min Rain = 0
KPD3 251147Z 15003KT 17/17 A2998 RMK A01 T01730173  RH  100%=      5-min Rain = 0
KPD3 251148Z 15004KT 17/17 A2998 RMK A01 T01730172  RH  099%=      5-min Rain = 0
KPD3 251149Z 15004KT 17/17 A2998 RMK A01 T01730173  RH  100%=      5-min Rain = 0
KPD3 251150Z 15004KT 17/17 A2998 RMK A01 T01740173  RH  100%=      5-min Rain = 0
KPD3 251151Z 15004KT 17/17 A2999 RMK A01 T01740173  RH  100%=      5-min Rain = 0
KPD3 251152Z 14005KT 17/17 A2999 RMK A01 T01740173  RH  100%=      5-min Rain = 0
KPD3 251153Z 14005KT 17/17 A2999 RMK A01 T01740173  RH  100%=      5-min Rain = 0
KPD3 251154Z 14003KT 17/17 A2999 RMK A01 T01740173  RH  100%=      5-min Rain = 0
KPD3 251155Z 15003KT 17/17 A2999 RMK A01 T01740173  RH  100%=      5-min Rain = 0
KPD3 251156Z 14004KT 17/17 A2999 RMK A01 T01740173  RH  100%=      5-min Rain = 0
KPD3 251157Z 15004KT 17/17 A2999 RMK A01 T01740173  RH  100%=      5-min Rain = 0
KPD3 251158Z 15005KT 17/17 A2999 RMK A01 T01740174  RH  100%=      5-min Rain = 0
KPD3 251159Z 15004KT 17/17 A2999 RMK A01 T01740173  RH  100%=      5-min Rain = 0
KPD3 251200Z 14004KT 17/17 A2999 RMK A01 T01740174  RH  100%=      5-min Rain = 0
KPD3 251201Z 15004KT 17/17 A2999 RMK A01 T01740174  RH  100%=      5-min Rain = 0
KPD3 251202Z 14005KT 17/17 A2999 RMK A01 T01740174  RH  100%=      5-min Rain = 0
KPD3 251203Z 15004KT 17/17 A2999 RMK A01 T01740174  RH  100%=      5-min Rain = 0
KPD3 251204Z 15005KT 18/17 A2999 RMK A01 T01750174  RH  100%=      5-min Rain = 0
KPD3 251205Z 15004KT 18/17 A2999 RMK A01 T01750174  RH  100%=      5-min Rain = 0
KPD3 251206Z 15005KT 18/17 A2999 RMK A01 T01750174  RH  100%=      5-min Rain = 0
KPD3 251207Z 15005KT 18/17 A2999 RMK A01 T01750174  RH  100%=      5-min Rain = 0
KPD3 251208Z 15005KT 18/17 A2999 RMK A01 T01750174  RH  100%=      5-min Rain = 0
KPD3 251209Z 16004KT 18/17 A2999 RMK A01 T01750174  RH  100%=      5-min Rain = 0
KPD3 251210Z 16004KT 17/17 A2999 RMK A01 T01740174  RH  100%=      5-min Rain = 0
KPD3 251211Z 15005KT 18/17 A2999 RMK A01 T01750174  RH  100%=      5-min Rain = 0
KPD3 251212Z 16004KT 18/17 A2999 RMK A01 T01750174  RH  100%=      5-min Rain = 0
KPD3 251213Z 16004KT 18/17 A2999 RMK A01 T01750174  RH  100%=      5-min Rain = 0
KPD3 251214Z 15004KT 18/17 A2999 RMK A01 T01750174  RH  100%=      5-min Rain = 0
KPD3 251215Z 16005KT 18/17 A2999 RMK A01 T01750174  RH  100%=      5-min Rain = 0
KPD3 251216Z 15004KT 18/18 A2999 RMK A01 T01750175  RH  100%=      5-min Rain = 0
KPD3 251217Z 15005KT 18/18 A2999 RMK A01 T01750175  RH  100%=      5-min Rain = 0
KPD3 251218Z 15005KT 18/18 A2999 RMK A01 T01760175  RH  100%=      5-min Rain = 0
KPD3 251219Z 15004KT 18/18 A2999 RMK A01 T01760175  RH  100%=      5-min Rain = 0
KPD3 251220Z 15005KT 18/18 A2999 RMK A01 T01760175  RH  100%=      5-min Rain = 0
KPD3 251221Z 15006KT 18/18 A2999 RMK A01 T01760175  RH  100%=      5-min Rain = 0
KPD3 251222Z 15006KT 18/18 A2999 RMK A01 T01760175  RH  100%=      5-min Rain = 0
KPD3 251223Z 16006KT 18/18 A30 RMK A01 T01750175  RH  100%=      5-min Rain = 0
KPD3 251224Z 15007KT 18/18 A30 RMK A01 T01760175  RH  100%=      5-min Rain = 0
KPD3 251225Z 15006KT 18/18 A30 RMK A01 T01760175  RH  100%=      5-min Rain = 0
KPD3 251226Z 16005KT 18/18 A30 RMK A01 T01770176  RH  100%=      5-min Rain = 0
KPD3 251227Z 16005KT 18/18 A30 RMK A01 T01770176  RH  100%=      5-min Rain = 0
KPD3 251228Z 16005KT 18/18 A30 RMK A01 T01770177  RH  100%=      5-min Rain = 0
KPD3 251229Z 16006KT 18/18 A30 RMK A01 T01770176  RH  100%=      5-min Rain = 0
KPD3 251230Z 16006KT 18/18 A30 RMK A01 T01770176  RH  100%=      5-min Rain = 0
KPD3 251231Z 16006KT 18/18 A30 RMK A01 T01770176  RH  100%=      5-min Rain = 0
KPD3 251232Z 16006KT 18/18 A30 RMK A01 T01770176  RH  100%=      5-min Rain = 0
KPD3 251233Z 15005KT 18/18 A30 RMK A01 T01770176  RH  100%=      5-min Rain = 0
KPD3 251234Z 16006KT 18/18 A30 RMK A01 T01770176  RH  100%=      5-min Rain = 0
KPD3 251235Z 16006KT 18/18 A30 RMK A01 T01770177  RH  100%=      5-min Rain = 0
KPD3 251236Z 16007KT 18/18 A30 RMK A01 T01770177  RH  100%=      5-min Rain = 0
KPD3 251237Z 16007KT 18/18 A30 RMK A01 T01780177  RH  100%=      5-min Rain = 0
KPD3 251238Z 15006KT 18/18 A30 RMK A01 T01780177  RH  100%=      5-min Rain = 0
KPD3 251239Z 16006KT 18/18 A30 RMK A01 T01780177  RH  100%=      5-min Rain = 0
KPD3 251240Z 16007KT 18/18 A30 RMK A01 T01780178  RH  100%=      5-min Rain = 0
KPD3 251241Z 15007KT 18/18 A30 RMK A01 T01780178  RH  100%=      5-min Rain = 0
KPD3 251242Z 16006KT 18/18 A30 RMK A01 T01780178  RH  100%=      5-min Rain = 0
KPD3 251243Z 15008KT 18/18 A30 RMK A01 T01790179  RH  100%=      5-min Rain = 0
KPD3 251244Z 15008KT 18/18 A30 RMK A01 T01790179  RH  100%=      5-min Rain = 0
KPD3 251245Z 16007KT 18/18 A30 RMK A01 T01790179  RH  100%=      5-min Rain = 0
KPD3 251246Z 15008KT 18/18 A30 RMK A01 T01790179  RH  100%=      5-min Rain = 0
KPD3 251247Z 15009KT 18/18 A30 RMK A01 T01800179  RH  100%=      5-min Rain = 0
KPD3 251248Z 15008KT 18/18 A30 RMK A01 T01800179  RH  100%=      5-min Rain = 0
KPD3 251249Z 15007KT 18/18 A30 RMK A01 T01800179  RH  100%=      5-min Rain = 0
KPD3 251250Z 15009KT 18/18 A30 RMK A01 T01800180  RH  100%=      5-min Rain = 0
KPD3 251251Z 16007KT 18/18 A30 RMK A01 T01800180  RH  100%=      5-min Rain = 0
KPD3 251252Z 16007KT 18/18 A30 RMK A01 T01800180  RH  100%=      5-min Rain = 0
KPD3 251253Z 15007KT 18/18 A30 RMK A01 T01810180  RH  100%=      5-min Rain = 0
KPD3 251254Z 15008KT 18/18 A30 RMK A01 T01810181  RH  100%=      5-min Rain = 0
KPD3 251255Z 16007KT 18/18 A30 RMK A01 T01810180  RH  100%=      5-min Rain = 0
KPD3 251256Z 15008KT 18/18 A30 RMK A01 T01810181  RH  100%=      5-min Rain = 0
KPD3 251257Z 15009KT 18/18 A30 RMK A01 T01820181  RH  100%=      5-min Rain = 0
KPD3 251258Z 15008KT 18/18 A30 RMK A01 T01810181  RH  100%=      5-min Rain = 0
KPD3 251259Z 15009KT 18/18 A30 RMK A01 T01810181  RH  100%=      5-min Rain = 0
KPD3 251300Z 15008KT 18/18 A30 RMK A01 T01820181  RH  100%=      5-min Rain = 0
KPD3 251301Z 15009KT 18/18 A30 RMK A01 T01820181  RH  100%=      5-min Rain = 0
KPD3 251302Z 15009KT 18/18 A30 RMK A01 T01820181  RH  100%=      5-min Rain = 0
KPD3 251303Z 15009KT 18/18 A30 RMK A01 T01820181  RH  100%=      5-min Rain = 0
KPD3 251304Z 15008KT 18/18 A30 RMK A01 T01820182  RH  100%=      5-min Rain = 0
KPD3 251305Z 15009KT 18/18 A30 RMK A01 T01820182  RH  100%=      5-min Rain = 0
KPD3 251306Z 15009KT 18/18 A30 RMK A01 T01820182  RH  100%=      5-min Rain = 0
KPD3 251307Z 15008KT 18/18 A30 RMK A01 T01820182  RH  100%=      5-min Rain = 0
KPD3 251308Z 15011KT 18/18 A30 RMK A01 T01830182  RH  100%=      5-min Rain = 0
KPD3 251309Z 15011KT 18/18 A30 RMK A01 T01830182  RH  100%=      5-min Rain = 0
KPD3 251310Z 15011KT 18/18 A30 RMK A01 T01830182  RH  100%=      5-min Rain = 0
KPD3 251311Z 15010KT 18/18 A30 RMK A01 T01820182  RH  100%=      5-min Rain = 0
KPD3 251312Z 15009KT 18/18 A30 RMK A01 T01830182  RH  100%=      5-min Rain = 0
KPD3 251313Z 15009KT 18/18 A30 RMK A01 T01830183  RH  100%=      5-min Rain = 0
KPD3 251314Z 15010KT 18/18 A30 RMK A01 T01840183  RH  100%=      5-min Rain = 0
KPD3 251315Z 15010KT 18/18 A30 RMK A01 T01840183  RH  100%=      5-min Rain = 0
KPD3 251316Z 15008KT 18/18 A30 RMK A01 T01840183  RH  100%=      5-min Rain = 0
KPD3 251317Z 15008KT 18/18 A30 RMK A01 T01840183  RH  100%=      5-min Rain = 0
KPD3 251318Z 15010KT 18/18 A30 RMK A01 T01840184  RH  100%=      5-min Rain = 0
KPD3 251319Z 14009KT 18/18 A30 RMK A01 T01840184  RH  100%=      5-min Rain = 0
KPD3 251320Z 15009KT 19/18 A30 RMK A01 T01850184  RH  100%=      5-min Rain = 0
KPD3 251321Z 14009KT 19/18 A30 RMK A01 T01850184  RH  100%=      5-min Rain = 0
KPD3 251322Z 15009KT 19/18 A30 RMK A01 T01850184  RH  100%=      5-min Rain = 0
KPD3 251323Z 15011KT 19/18 A30 RMK A01 T01850184  RH  100%=      5-min Rain = 0
KPD3 251324Z 14010KT 19/18 A30 RMK A01 T01850184  RH  100%=      5-min Rain = 0
KPD3 251325Z 14010KT 19/18 A30 RMK A01 T01850184  RH  100%=      5-min Rain = 0
KPD3 251326Z 15011KT 19/19 A30 RMK A01 T01860185  RH  100%=      5-min Rain = 0
KPD3 251327Z 14012KT 19/19 A30 RMK A01 T01860185  RH  100%=      5-min Rain = 0
KPD3 251328Z 14012KT 19/19 A30 RMK A01 T01860185  RH  100%=      5-min Rain = 0
KPD3 251329Z 15012KT 19/19 A30 RMK A01 T01860185  RH  100%=      5-min Rain = 0
KPD3 251330Z 15013KT 19/19 A30 RMK A01 T01860186  RH  100%=      5-min Rain = 0
KPD3 251331Z 15014KT 19/19 A30 RMK A01 T01870186  RH  100%=      5-min Rain = 0
KPD3 251332Z 14013KT 19/19 A30 RMK A01 T01860185  RH  100%=      5-min Rain = 0
KPD3 251333Z 15011KT 19/19 A30 RMK A01 T01860186  RH  100%=      5-min Rain = 0
KPD3 251334Z 15013KT 19/19 A30 RMK A01 T01860186  RH  100%=      5-min Rain = 0
KPD3 251335Z 15016KT 19/19 A2999 RMK A01 T01860186  RH  100%=      5-min Rain = 0
KPD3 251336Z 15015KT 19/19 A2999 RMK A01 T01870186  RH  100%=      5-min Rain = 0
KPD3 251337Z 15014KT 19/19 A2999 RMK A01 T01870186  RH  100%=      5-min Rain = 0
KPD3 251338Z 15015KT 19/19 A2999 RMK A01 T01870186  RH  100%=      5-min Rain = 0
KPD3 251339Z 15015KT 19/19 A2999 RMK A01 T01880187  RH  100%=      5-min Rain = 0
KPD3 251340Z 15015KT 19/19 A2999 RMK A01 T01880188  RH  100%=      5-min Rain = 0
KPD3 251341Z 15014KT 19/19 A2999 RMK A01 T01890188  RH  099%=      5-min Rain = 0
KPD3 251342Z 15014KT 19/19 A2999 RMK A01 T01890188  RH  099%=      5-min Rain = 0
KPD3 251343Z 15014KT 19/19 A30 RMK A01 T01890188  RH  099%=      5-min Rain = 0
KPD3 251344Z 15014KT 19/19 A30 RMK A01 T01890189  RH  099%=      5-min Rain = 0
KPD3 251345Z 16014KT 19/19 A30 RMK A01 T01890189  RH  099%=      5-min Rain = 0
KPD3 251346Z 16012KT 19/19 A30 RMK A01 T01900189  RH  099%=      5-min Rain = 0
KPD3 251347Z 15012KT 19/19 A30 RMK A01 T01900190  RH  099%=      5-min Rain = 0
KPD3 251348Z 16014KT 19/19 A30 RMK A01 T01900190  RH  099%=      5-min Rain = 0
KPD3 251349Z 15012KT 19/19 A30 RMK A01 T01900189  RH  099%=      5-min Rain = 0
KPD3 251350Z 16012KT 19/19 A30 RMK A01 T01900189  RH  099%=      5-min Rain = 0
KPD3 251351Z 16013KT 19/19 A30 RMK A01 T01890188  RH  099%=      5-min Rain = 0
KPD3 251352Z 16012KT 19/19 A30 RMK A01 T01890189  RH  099%=      5-min Rain = 0
KPD3 251353Z 16012KT 19/19 A30 RMK A01 T01890189  RH  099%=      5-min Rain = 0
KPD3 251354Z 15009KT 19/19 A30 RMK A01 T01890189  RH  100%=      5-min Rain = 0
KPD3 251355Z 16010KT 19/19 A30 RMK A01 T01900189  RH  100%=      5-min Rain = 0
KPD3 251356Z 16010KT 19/19 A3001 RMK A01 T01900190  RH  100%=      5-min Rain = 0
KPD3 251357Z 16011KT 19/19 A3001 RMK A01 T01900190  RH  100%=      5-min Rain = 0
KPD3 251358Z 16012KT 19/19 A3001 RMK A01 T01900189  RH  099%=      5-min Rain = 0
KPD3 251359Z 15011KT 19/19 A3001 RMK A01 T01900189  RH  099%=      5-min Rain = 0
KPD3 251400Z 15011KT 19/19 A3001 RMK A01 T01890188  RH  099%=      5-min Rain = 0
KPD3 251401Z 16010KT 19/19 A3001 RMK A01 T01890188  RH  099%=      5-min Rain = 0
KPD3 251402Z 16008KT 19/19 A3001 RMK A01 T01880188  RH  099%=      5-min Rain = 0
KPD3 251403Z 16008KT 19/19 A3001 RMK A01 T01890188  RH  099%=      5-min Rain = 0
KPD3 251404Z 17010KT 19/19 A3001 RMK A01 T01890188  RH  100%=      5-min Rain = 0
KPD3 251405Z 17010KT 19/19 A3001 RMK A01 T01890188  RH  099%=      5-min Rain = 0
KPD3 251406Z 16008KT 19/19 A3001 RMK A01 T01890188  RH  099%=      5-min Rain = 0
KPD3 251407Z 16008KT 19/19 A3001 RMK A01 T01880188  RH  099%=      5-min Rain = 0
KPD3 251408Z 16007KT 19/19 A3001 RMK A01 T01890188  RH  099%=      5-min Rain = 0
KPD3 251409Z 16009KT 19/19 A3001 RMK A01 T01890188  RH  099%=      5-min Rain = 0
KPD3 251410Z 15009KT 19/19 A3001 RMK A01 T01890188  RH  099%=      5-min Rain = 0
KPD3 251411Z 15008KT 19/19 A3001 RMK A01 T01890188  RH  099%=      5-min Rain = 0
KPD3 251412Z 16007KT 19/19 A3001 RMK A01 T01890188  RH  099%=      5-min Rain = 0
KPD3 251413Z 16008KT 19/19 A3001 RMK A01 T01900189  RH  099%=      5-min Rain = 0
KPD3 251414Z 16006KT 19/19 A3001 RMK A01 T01900189  RH  099%=      5-min Rain = 0
KPD3 251415Z 15007KT 19/19 A3001 RMK A01 T01910190  RH  099%=      5-min Rain = 0
KPD3 251416Z 15007KT 19/19 A3002 RMK A01 T01910190  RH  099%=      5-min Rain = 0
KPD3 251417Z 15008KT 19/19 A3002 RMK A01 T01920191  RH  099%=      5-min Rain = 0
KPD3 251418Z 15009KT 19/19 A3002 RMK A01 T01910190  RH  099%=      5-min Rain = 0
KPD3 251419Z 16007KT 19/19 A3002 RMK A01 T01910190  RH  099%=      5-min Rain = 0
KPD3 251420Z 16008KT 19/19 A3002 RMK A01 T01910190  RH  099%=      5-min Rain = 0
KPD3 251421Z 14007KT 19/19 A3002 RMK A01 T01910190  RH  099%=      5-min Rain = 0
KPD3 251422Z 16008KT 19/19 A3002 RMK A01 T01910190  RH  099%=      5-min Rain = 0
KPD3 251423Z 16008KT 19/19 A3002 RMK A01 T01910190  RH  099%=      5-min Rain = 0
KPD3 251424Z 15009KT 19/19 A3002 RMK A01 T01910190  RH  099%=      5-min Rain = 0
KPD3 251425Z 15008KT 19/19 A3002 RMK A01 T01910190  RH  099%=      5-min Rain = 0
KPD3 251426Z 15007KT 19/19 A3002 RMK A01 T01920191  RH  099%=      5-min Rain = 0
KPD3 251427Z 16008KT 19/19 A3002 RMK A01 T01930192  RH  099%=      5-min Rain = 0
KPD3 251428Z 16007KT 19/19 A3002 RMK A01 T01930192  RH  099%=      5-min Rain = 0
KPD3 251429Z 15007KT 19/19 A3002 RMK A01 T01930192  RH  099%=      5-min Rain = 0
KPD3 251430Z 16008KT 19/19 A3001 RMK A01 T01940192  RH  099%=      5-min Rain = 0
KPD3 251431Z 16007KT 19/19 A3001 RMK A01 T01930192  RH  099%=      5-min Rain = 0
KPD3 251432Z 15007KT 19/19 A3001 RMK A01 T01930192  RH  099%=      5-min Rain = 0
KPD3 251433Z 15009KT 19/19 A3001 RMK A01 T01940192  RH  099%=      5-min Rain = 0
KPD3 251434Z 15009KT 19/19 A3001 RMK A01 T01940192  RH  099%=      5-min Rain = 0
KPD3 251435Z 15010KT 19/19 A3002 RMK A01 T01940192  RH  099%=      5-min Rain = 0
KPD3 251436Z 15009KT 19/19 A3002 RMK A01 T01930191  RH  099%=      5-min Rain = 0
KPD3 251437Z 15009KT 19/19 A3002 RMK A01 T01930191  RH  099%=      5-min Rain = 0
KPD3 251438Z 15008KT 19/19 A3002 RMK A01 T01930191  RH  099%=      5-min Rain = 0
KPD3 251439Z 15010KT 19/19 A3002 RMK A01 T01930191  RH  099%=      5-min Rain = 0
KPD3 251440Z 15009KT 19/19 A3002 RMK A01 T01930191  RH  099%=      5-min Rain = 0
KPD3 251441Z 15008KT 19/19 A3001 RMK A01 T01930191  RH  099%=      5-min Rain = 0
KPD3 251442Z 15008KT 19/19 A3001 RMK A01 T01930191  RH  099%=      5-min Rain = 0
KPD3 251443Z 15008KT 19/19 A3002 RMK A01 T01930191  RH  098%=      5-min Rain = 0
KPD3 251444Z 15008KT 19/19 A3002 RMK A01 T01930191  RH  098%=      5-min Rain = 0
KPD3 251445Z 14008KT 19/19 A3002 RMK A01 T01940191  RH  098%=      5-min Rain = 0
KPD3 251446Z 14008KT 19/19 A3002 RMK A01 T01940191  RH  098%=      5-min Rain = 0
KPD3 251447Z 14008KT 19/19 A3002 RMK A01 T01940191  RH  098%=      5-min Rain = 0
KPD3 251448Z 15008KT 19/19 A3002 RMK A01 T01940191  RH  098%=      5-min Rain = 0
KPD3 251449Z 14008KT 19/19 A3002 RMK A01 T01940191  RH  098%=      5-min Rain = 0
KPD3 251450Z 15009KT 19/19 A3002 RMK A01 T01940191  RH  098%=      5-min Rain = 0
KPD3 251451Z 15008KT 19/19 A3002 RMK A01 T01940191  RH  098%=      5-min Rain = 0
KPD3 251452Z 14008KT 19/19 A3002 RMK A01 T01940191  RH  098%=      5-min Rain = 0
KPD3 251453Z 14008KT 19/19 A3002 RMK A01 T01940191  RH  098%=      5-min Rain = 0
KPD3 251454Z 14008KT 19/19 A3002 RMK A01 T01940191  RH  098%=      5-min Rain = 0
KPD3 251455Z 14009KT 20/19 A3002 RMK A01 T01950191  RH  098%=      5-min Rain = 0
KPD3 251456Z 14007KT 20/19 A3002 RMK A01 T01950192  RH  098%=      5-min Rain = 0
KPD3 251457Z 14008KT 20/19 A3002 RMK A01 T01950192  RH  098%=      5-min Rain = 0
KPD3 251458Z 15008KT 20/19 A3002 RMK A01 T01950192  RH  098%=      5-min Rain = 0
KPD3 251459Z 15009KT 20/19 A3002 RMK A01 T01950191  RH  098%=      5-min Rain = 0
KPD3 251500Z 15009KT 20/19 A3002 RMK A01 T01960192  RH  098%=      5-min Rain = 0
KPD3 251501Z 15008KT 20/19 A3002 RMK A01 T01950191  RH  097%=      5-min Rain = 0
KPD3 251502Z 14007KT 20/19 A3002 RMK A01 T01960192  RH  097%=      5-min Rain = 0
KPD3 251503Z 14008KT 20/19 A3002 RMK A01 T01960192  RH  097%=      5-min Rain = 0
KPD3 251504Z 14007KT 20/19 A3002 RMK A01 T01960192  RH  097%=      5-min Rain = 0
KPD3 251505Z 14007KT 20/19 A3002 RMK A01 T01960192  RH  097%=      5-min Rain = 0
KPD3 251506Z 14008KT 20/19 A3002 RMK A01 T01960192  RH  097%=      5-min Rain = 0
KPD3 251507Z 14007KT 20/19 A3002 RMK A01 T01960192  RH  097%=      5-min Rain = 0
KPD3 251508Z 14008KT 20/19 A3002 RMK A01 T01960191  RH  097%=      5-min Rain = 0
KPD3 251509Z 14008KT 20/19 A3002 RMK A01 T01960191  RH  097%=      5-min Rain = 0
KPD3 251510Z 14008KT 20/19 A3002 RMK A01 T01960191  RH  097%=      5-min Rain = 0
KPD3 251511Z 15008KT 20/19 A3002 RMK A01 T01960191  RH  097%=      5-min Rain = 0
KPD3 251512Z 15007KT 20/19 A3002 RMK A01 T01970192  RH  097%=      5-min Rain = 0
KPD3 251513Z 15007KT 20/19 A3002 RMK A01 T01970192  RH  097%=      5-min Rain = 0
KPD3 251514Z 14008KT 20/19 A3002 RMK A01 T01970192  RH  097%=      5-min Rain = 0
KPD3 251515Z 14009KT 20/19 A3002 RMK A01 T01970192  RH  097%=      5-min Rain = 0
KPD3 251516Z 14008KT 20/19 A3002 RMK A01 T01980192  RH  097%=      5-min Rain = 0
KPD3 251517Z 14008KT 20/19 A3002 RMK A01 T01980192  RH  096%=      5-min Rain = 0
KPD3 251518Z 14007KT 20/19 A3002 RMK A01 T01980192  RH  096%=      5-min Rain = 0
KPD3 251519Z 14010KT 20/19 A3002 RMK A01 T01990193  RH  097%=      5-min Rain = 0
KPD3 251520Z 14010KT 20/19 A3002 RMK A01 T01980192  RH  096%=      5-min Rain = 0
KPD3 251521Z 14008KT 20/19 A3002 RMK A01 T01990192  RH  096%=      5-min Rain = 0
KPD3 251522Z 14007KT 20/19 A3002 RMK A01 T01990193  RH  096%=      5-min Rain = 0
KPD3 251523Z 14010KT 20/19 A3002 RMK A01 T02000193  RH  096%=      5-min Rain = 0
KPD3 251524Z 14010KT 20/19 A3002 RMK A01 T02000193  RH  096%=      5-min Rain = 0
KPD3 251525Z 15009KT 20/19 A3002 RMK A01 T01990192  RH  096%=      5-min Rain = 0
KPD3 251526Z 15010KT 20/19 A3002 RMK A01 T02000193  RH  096%=      5-min Rain = 0
KPD3 251527Z 15009KT 20/19 A3002 RMK A01 T02000193  RH  096%=      5-min Rain = 0
KPD3 251528Z 15007KT 20/19 A3002 RMK A01 T02000194  RH  096%=      5-min Rain = 0
KPD3 251529Z 15010KT 20/20 A3002 RMK A01 T02020195  RH  096%=      5-min Rain = 0
KPD3 251530Z 14010KT 20/19 A3002 RMK A01 T02010194  RH  095%=      5-min Rain = 0
KPD3 251531Z 15010KT 20/19 A3002 RMK A01 T02020193  RH  095%=      5-min Rain = 0
KPD3 251532Z 15009KT 20/19 A3002 RMK A01 T02020194  RH  095%=      5-min Rain = 0
KPD3 251533Z 14009KT 20/20 A3002 RMK A01 T02030195  RH  095%=      5-min Rain = 0
KPD3 251534Z 15010KT 20/20 A3002 RMK A01 T02040195  RH  095%=      5-min Rain = 0
KPD3 251535Z 15009KT 20/19 A3002 RMK A01 T02040194  RH  094%=      5-min Rain = 0
KPD3 251536Z 15010KT 21/19 A3002 RMK A01 T02050194  RH  094%=      5-min Rain = 0
KPD3 251537Z 16010KT 21/19 A3002 RMK A01 T02050194  RH  093%=      5-min Rain = 0
KPD3 251538Z 15008KT 21/19 A3002 RMK A01 T02050194  RH  093%=      5-min Rain = 0
KPD3 251539Z 15008KT 21/20 A3002 RMK A01 T02060195  RH  093%=      5-min Rain = 0
KPD3 251540Z 15009KT 21/20 A3002 RMK A01 T02070196  RH  093%=      5-min Rain = 0
KPD3 251541Z 16009KT 21/20 A3002 RMK A01 T02070195  RH  093%=      5-min Rain = 0
KPD3 251542Z 15009KT 21/20 A3002 RMK A01 T02080195  RH  092%=      5-min Rain = 0
KPD3 251543Z 15009KT 21/20 A3002 RMK A01 T02080195  RH  092%=      5-min Rain = 0
KPD3 251544Z 15010KT 21/20 A3002 RMK A01 T02080195  RH  092%=      5-min Rain = 0
KPD3 251545Z 15009KT 21/20 A3002 RMK A01 T02090195  RH  092%=      5-min Rain = 0
KPD3 251546Z 16007KT 21/20 A3002 RMK A01 T02090195  RH  092%=      5-min Rain = 0
KPD3 251547Z 16008KT 21/20 A3002 RMK A01 T02090196  RH  092%=      5-min Rain = 0
KPD3 251548Z 16007KT 21/20 A3002 RMK A01 T02110198  RH  092%=      5-min Rain = 0
KPD3 251549Z 15008KT 21/20 A3002 RMK A01 T02120199  RH  092%=      5-min Rain = 0
KPD3 251550Z 15009KT 21/20 A3002 RMK A01 T02130197  RH  090%=      5-min Rain = 0
KPD3 251551Z 15009KT 21/20 A3002 RMK A01 T02140196  RH  090%=      5-min Rain = 0
KPD3 251552Z 16009KT 21/20 A3002 RMK A01 T02130197  RH  090%=      5-min Rain = 0
KPD3 251553Z 15009KT 21/20 A3002 RMK A01 T02140199  RH  091%=      5-min Rain = 0
KPD3 251554Z 16008KT 22/20 A3002 RMK A01 T02150198  RH  090%=      5-min Rain = 0
KPD3 251555Z 16008KT 22/20 A3002 RMK A01 T02160199  RH  090%=      5-min Rain = 0
KPD3 251556Z 16007KT 22/20 A3002 RMK A01 T02160198  RH  089%=      5-min Rain = 0
KPD3 251557Z 15007KT 22/20 A3001 RMK A01 T02170199  RH  089%=      5-min Rain = 0
KPD3 251558Z 15008KT 22/20 A3001 RMK A01 T02170198  RH  089%=      5-min Rain = 0
KPD3 251559Z 16008KT 22/20 A3001 RMK A01 T02170198  RH  089%=      5-min Rain = 0
KPD3 251600Z 16007KT 22/20 A3001 RMK A01 T02170199  RH  089%=      5-min Rain = 0
KPD3 251601Z 16009KT 22/20 A3001 RMK A01 T02180200  RH  089%=      5-min Rain = 0
KPD3 251602Z 16010KT 22/20 A3001 RMK A01 T02190200  RH  089%=      5-min Rain = 0
KPD3 251603Z 15011KT 22/20 A3001 RMK A01 T02210199  RH  087%=      5-min Rain = 0
KPD3 251604Z 15010KT 22/20 A3001 RMK A01 T02210198  RH  087%=      5-min Rain = 0
KPD3 251605Z 15010KT 22/20 A3002 RMK A01 T02210199  RH  088%=      5-min Rain = 0
KPD3 251606Z 16008KT 22/20 A3002 RMK A01 T02210199  RH  088%=      5-min Rain = 0
KPD3 251607Z 17009KT 22/20 A3002 RMK A01 T02210200  RH  088%=      5-min Rain = 0
KPD3 251608Z 16007KT 22/20 A3001 RMK A01 T02210199  RH  087%=      5-min Rain = 0
KPD3 251609Z 16007KT 22/20 A3001 RMK A01 T02210200  RH  088%=      5-min Rain = 0
KPD3 251610Z 15009KT 22/20 A3001 RMK A01 T02210200  RH  088%=      5-min Rain = 0
KPD3 251611Z 15009KT 22/20 A3001 RMK A01 T02210199  RH  087%=      5-min Rain = 0
KPD3 251612Z 15009KT 22/20 A3001 RMK A01 T02200198  RH  087%=      5-min Rain = 0
KPD3 251613Z 15010KT 22/20 A3001 RMK A01 T02200199  RH  088%=      5-min Rain = 0
KPD3 251614Z 15009KT 22/20 A3001 RMK A01 T02200199  RH  088%=      5-min Rain = 0
KPD3 251615Z 15009KT 22/20 A3001 RMK A01 T02210200  RH  088%=      5-min Rain = 0
KPD3 251616Z 15008KT 22/20 A3001 RMK A01 T02220200  RH  087%=      5-min Rain = 0
KPD3 251617Z 15010KT 22/20 A3001 RMK A01 T02230201  RH  088%=      5-min Rain = 0
KPD3 251618Z 15009KT 22/20 A3001 RMK A01 T02240202  RH  087%=      5-min Rain = 0
KPD3 251619Z 16009KT 23/20 A3001 RMK A01 T02260203  RH  087%=      5-min Rain = 0
KPD3 251620Z 15010KT 23/20 A3001 RMK A01 T02270200  RH  085%=      5-min Rain = 0
KPD3 251621Z 17009KT 23/20 A3001 RMK A01 T02270201  RH  085%=      5-min Rain = 0
KPD3 251622Z 16009KT 23/20 A3001 RMK A01 T02270200  RH  085%=      5-min Rain = 0
KPD3 251623Z 15010KT 23/20 A3001 RMK A01 T02260201  RH  086%=      5-min Rain = 0
KPD3 251624Z 15010KT 23/20 A3001 RMK A01 T02260201  RH  085%=      5-min Rain = 0
KPD3 251625Z 16009KT 23/20 A3001 RMK A01 T02260201  RH  086%=      5-min Rain = 0
KPD3 251626Z 14010KT 23/20 A3001 RMK A01 T02260201  RH  086%=      5-min Rain = 0
KPD3 251627Z 15009KT 23/20 A3001 RMK A01 T02270201  RH  085%=      5-min Rain = 0
KPD3 251628Z 15008KT 23/20 A3001 RMK A01 T02270201  RH  085%=      5-min Rain = 0
KPD3 251629Z 15007KT 23/20 A3001 RMK A01 T02260200  RH  086%=      5-min Rain = 0
KPD3 251630Z 15006KT 23/20 A3001 RMK A01 T02260202  RH  087%=      5-min Rain = 0
KPD3 251631Z 15009KT 23/20 A3001 RMK A01 T02260202  RH  087%=      5-min Rain = 0
KPD3 251632Z 14009KT 23/20 A3001 RMK A01 T02260201  RH  086%=      5-min Rain = 0
KPD3 251633Z 15010KT 23/20 A3001 RMK A01 T02260201  RH  086%=      5-min Rain = 0
KPD3 251634Z 15008KT 22/20 A3001 RMK A01 T02240199  RH  086%=      5-min Rain = 0
KPD3 251635Z 15007KT 22/20 A3001 RMK A01 T02230200  RH  087%=      5-min Rain = 0
KPD3 251636Z 14007KT 22/20 A3001 RMK A01 T02220201  RH  088%=      5-min Rain = 0
KPD3 251637Z 14006KT 22/20 A3001 RMK A01 T02230201  RH  087%=      5-min Rain = 0
KPD3 251638Z 14007KT 22/20 A3001 RMK A01 T02230200  RH  087%=      5-min Rain = 0
KPD3 251639Z 15008KT 22/20 A3001 RMK A01 T02230201  RH  087%=      5-min Rain = 0
KPD3 251640Z 14009KT 22/20 A3001 RMK A01 T02230201  RH  087%=      5-min Rain = 0
KPD3 251641Z 14007KT 22/20 A3001 RMK A01 T02220200  RH  087%=      5-min Rain = 0
KPD3 251642Z 15008KT 22/20 A3001 RMK A01 T02230201  RH  087%=      5-min Rain = 0
KPD3 251643Z 15008KT 22/20 A3001 RMK A01 T02230201  RH  088%=      5-min Rain = 0
KPD3 251644Z 13009KT 22/20 A3001 RMK A01 T02230200  RH  087%=      5-min Rain = 0
KPD3 251645Z 14009KT 22/20 A3001 RMK A01 T02230200  RH  087%=      5-min Rain = 0
KPD3 251646Z 13008KT 22/20 A3001 RMK A01 T02230201  RH  087%=      5-min Rain = 0
KPD3 251647Z 13009KT 22/20 A3001 RMK A01 T02230201  RH  088%=      5-min Rain = 0
KPD3 251648Z 14011KT 22/20 A3001 RMK A01 T02230200  RH  087%=      5-min Rain = 0
KPD3 251649Z 14009KT 22/20 A3001 RMK A01 T02230201  RH  087%=      5-min Rain = 0
KPD3 251650Z 15010KT 22/20 A3001 RMK A01 T02230201  RH  087%=      5-min Rain = 0
KPD3 251651Z 14008KT 22/20 A3001 RMK A01 T02240201  RH  087%=      5-min Rain = 0
KPD3 251652Z 15009KT 22/20 A3001 RMK A01 T02240201  RH  087%=      5-min Rain = 0
KPD3 251653Z 15008KT 22/20 A3001 RMK A01 T02240201  RH  087%=      5-min Rain = 0
KPD3 251654Z 14008KT 23/20 A3001 RMK A01 T02250203  RH  087%=      5-min Rain = 0
KPD3 251655Z 15009KT 23/20 A3001 RMK A01 T02260203  RH  087%=      5-min Rain = 0
KPD3 251656Z 14009KT 23/20 A3001 RMK A01 T02270203  RH  086%=      5-min Rain = 0
KPD3 251657Z 15010KT 23/20 A3001 RMK A01 T02290203  RH  085%=      5-min Rain = 0
KPD3 251658Z 15009KT 23/20 A3001 RMK A01 T02290202  RH  085%=      5-min Rain = 0
KPD3 251659Z 14010KT 23/20 A3001 RMK A01 T02290204  RH  086%=      5-min Rain = 0
KPD3 251700Z 15009KT 23/20 A3001 RMK A01 T02290204  RH  085%=      5-min Rain = 0
KPD3 251701Z 15011KT 23/20 A3001 RMK A01 T02300203  RH  085%=      5-min Rain = 0
KPD3 251702Z 14009KT 23/20 A3001 RMK A01 T02300203  RH  084%=      5-min Rain = 0
KPD3 251703Z 14009KT 23/20 A3001 RMK A01 T02300203  RH  085%=      5-min Rain = 0
KPD3 251704Z 14009KT 23/20 A3001 RMK A01 T02300203  RH  085%=      5-min Rain = 0
KPD3 251705Z 14010KT 23/20 A3001 RMK A01 T02290204  RH  085%=      5-min Rain = 0
KPD3 251706Z 15009KT 23/20 A3001 RMK A01 T02300203  RH  085%=      5-min Rain = 0
KPD3 251707Z 14009KT 23/20 A3001 RMK A01 T02290202  RH  085%=      5-min Rain = 0
KPD3 251708Z 14009KT 23/20 A3001 RMK A01 T02290202  RH  085%=      5-min Rain = 0
KPD3 251709Z 14009KT 23/20 A3001 RMK A01 T02280203  RH  086%=      5-min Rain = 0
KPD3 251710Z 15010KT 23/20 A3001 RMK A01 T02280203  RH  086%=      5-min Rain = 0
KPD3 251711Z 15010KT 23/20 A3001 RMK A01 T02290203  RH  085%=      5-min Rain = 0
KPD3 251712Z 15010KT 23/20 A3001 RMK A01 T02280202  RH  086%=      5-min Rain = 0
KPD3 251713Z 15010KT 23/20 A3001 RMK A01 T02280202  RH  086%=      5-min Rain = 0
KPD3 251714Z 14009KT 23/20 A3001 RMK A01 T02270202  RH  086%=      5-min Rain = 0
KPD3 251715Z 15010KT 23/20 A3001 RMK A01 T02280203  RH  086%=      5-min Rain = 0
KPD3 251716Z 14009KT 23/20 A3001 RMK A01 T02280203  RH  086%=      5-min Rain = 0
KPD3 251717Z 15007KT 23/20 A3001 RMK A01 T02280203  RH  086%=      5-min Rain = 0
KPD3 251718Z 15006KT 23/21 A3001 RMK A01 T02290206  RH  087%=      5-min Rain = 0
KPD3 251719Z 16006KT 23/21 A3001 RMK A01 T02310205  RH  085%=      5-min Rain = 0
KPD3 251720Z 16007KT 23/21 A3001 RMK A01 T02320205  RH  085%=      5-min Rain = 0
KPD3 251721Z 16008KT 23/21 A3001 RMK A01 T02330206  RH  085%=      5-min Rain = 0
KPD3 251722Z 16011KT 24/21 A3001 RMK A01 T02350205  RH  083%=      5-min Rain = 0
KPD3 251723Z 18010KT 24/20 A3001 RMK A01 T02360204  RH  082%=      5-min Rain = 0
KPD3 251724Z 18009KT 24/20 A3001 RMK A01 T02370204  RH  082%=      5-min Rain = 0
KPD3 251725Z 19009KT 24/21 A3001 RMK A01 T02370205  RH  082%=      5-min Rain = 0
KPD3 251726Z 18011KT 24/20 A3001 RMK A01 T02370202  RH  081%=      5-min Rain = 0
KPD3 251727Z 18010KT 24/20 A3001 RMK A01 T02360202  RH  081%=      5-min Rain = 0
KPD3 251728Z 18010KT 24/20 A3001 RMK A01 T02360203  RH  082%=      5-min Rain = 0
KPD3 251729Z 18011KT 24/20 A3001 RMK A01 T02360203  RH  082%=      5-min Rain = 0
KPD3 251730Z 17011KT 24/20 A3001 RMK A01 T02360203  RH  082%=      5-min Rain = 0
KPD3 251731Z 17010KT 24/20 A3001 RMK A01 T02370204  RH  082%=      5-min Rain = 0
KPD3 251732Z 18010KT 24/20 A3001 RMK A01 T02370203  RH  081%=      5-min Rain = 0
KPD3 251733Z 17008KT 24/20 A3001 RMK A01 T02380204  RH  081%=      5-min Rain = 0
KPD3 251734Z 17009KT 24/20 A3001 RMK A01 T02380204  RH  081%=      5-min Rain = 0
KPD3 251735Z 18008KT 24/21 A3001 RMK A01 T02390205  RH  081%=      5-min Rain = 0
KPD3 251736Z 17009KT 24/21 A3001 RMK A01 T02400207  RH  082%=      5-min Rain = 0
KPD3 251737Z 18009KT 24/21 A3001 RMK A01 T02410206  RH  081%=      5-min Rain = 0
KPD3 251738Z 18010KT 24/20 A3001 RMK A01 T02410204  RH  080%=      5-min Rain = 0
KPD3 251739Z 17010KT 24/20 A3001 RMK A01 T02400204  RH  080%=      5-min Rain = 0
KPD3 251740Z 18008KT 24/21 A3001 RMK A01 T02390205  RH  081%=      5-min Rain = 0
KPD3 251741Z 18010KT 24/20 A3001 RMK A01 T02390204  RH  081%=      5-min Rain = 0
KPD3 251742Z 18009KT 24/20 A3001 RMK A01 T02380204  RH  081%=      5-min Rain = 0
KPD3 251743Z 17009KT 24/20 A3001 RMK A01 T02380204  RH  081%=      5-min Rain = 0
KPD3 251744Z 17009KT 24/20 A3001 RMK A01 T02380204  RH  081%=      5-min Rain = 0
KPD3 251745Z 17010KT 24/20 A30 RMK A01 T02380204  RH  081%=      5-min Rain = 0
KPD3 251746Z 17010KT 24/20 A30 RMK A01 T02380203  RH  081%=      5-min Rain = 0
KPD3 251747Z 17011KT 24/21 A30 RMK A01 T02390205  RH  081%=      5-min Rain = 0
KPD3 251748Z 17009KT 24/21 A30 RMK A01 T02400206  RH  081%=      5-min Rain = 0
KPD3 251749Z 16011KT 24/21 A30 RMK A01 T02420206  RH  081%=      5-min Rain = 0
KPD3 251750Z 17010KT 24/21 A30 RMK A01 T02420205  RH  080%=      5-min Rain = 0
KPD3 251751Z 17011KT 24/21 A30 RMK A01 T02420205  RH  080%=      5-min Rain = 0
KPD3 251752Z 16011KT 24/21 A30 RMK A01 T02430206  RH  080%=      5-min Rain = 0
KPD3 251753Z 16012KT 24/21 A30 RMK A01 T02430205  RH  079%=      5-min Rain = 0
KPD3 251754Z 15010KT 24/21 A30 RMK A01 T02430206  RH  080%=      5-min Rain = 0
KPD3 251755Z 16010KT 24/21 A30 RMK A01 T02430206  RH  080%=      5-min Rain = 0
KPD3 251756Z 16009KT 24/21 A30 RMK A01 T02430205  RH  079%=      5-min Rain = 0
KPD3 251757Z 16009KT 24/21 A30 RMK A01 T02430207  RH  080%=      5-min Rain = 0
KPD3 251758Z 16011KT 24/21 A30 RMK A01 T02440208  RH  081%=      5-min Rain = 0
KPD3 251759Z 15014KT 24/21 A30 RMK A01 T02440207  RH  080%=      5-min Rain = 0
KPD3 251800Z 15011KT 24/21 A30 RMK A01 T02430206  RH  080%=      5-min Rain = 0
KPD3 251801Z 15013KT 24/21 A30 RMK A01 T02430206  RH  080%=      5-min Rain = 0
KPD3 251802Z 16011KT 24/21 A30 RMK A01 T02430206  RH  080%=      5-min Rain = 0
KPD3 251803Z 15010KT 24/21 A30 RMK A01 T02430207  RH  080%=      5-min Rain = 0
KPD3 251804Z 16009KT 24/21 A30 RMK A01 T02430207  RH  081%=      5-min Rain = 0
KPD3 251805Z 16011KT 24/21 A30 RMK A01 T02430207  RH  080%=      5-min Rain = 0
KPD3 251806Z 16013KT 24/21 A30 RMK A01 T02420205  RH  080%=      5-min Rain = 0
KPD3 251807Z 16011KT 24/21 A30 RMK A01 T02410205  RH  080%=      5-min Rain = 0
KPD3 251808Z 15010KT 24/21 A30 RMK A01 T02400207  RH  081%=      5-min Rain = 0
KPD3 251809Z 14011KT 24/21 A30 RMK A01 T02400207  RH  082%=      5-min Rain = 0
KPD3 251810Z 15011KT 24/21 A30 RMK A01 T02400207  RH  082%=      5-min Rain = 0
KPD3 251811Z 14011KT 24/21 A30 RMK A01 T02400208  RH  082%=      5-min Rain = 0
KPD3 251812Z 16013KT 24/21 A30 RMK A01 T02410208  RH  082%=      5-min Rain = 0
KPD3 251813Z 15012KT 24/21 A30 RMK A01 T02410205  RH  080%=      5-min Rain = 0
KPD3 251814Z 15010KT 24/21 A30 RMK A01 T02400206  RH  081%=      5-min Rain = 0
KPD3 251815Z 15011KT 24/21 A30 RMK A01 T02410207  RH  081%=      5-min Rain = 0
KPD3 251816Z 16011KT 24/21 A30 RMK A01 T02410207  RH  082%=      5-min Rain = 0
KPD3 251817Z 16010KT 24/21 A30 RMK A01 T02420206  RH  081%=      5-min Rain = 0
KPD3 251818Z 15010KT 24/21 A30 RMK A01 T02410206  RH  081%=      5-min Rain = 0
KPD3 251819Z 15011KT 24/21 A30 RMK A01 T02410207  RH  081%=      5-min Rain = 0
KPD3 251820Z 15010KT 24/21 A30 RMK A01 T02410207  RH  081%=      5-min Rain = 0
KPD3 251821Z 16009KT 24/21 A30 RMK A01 T02420209  RH  082%=      5-min Rain = 0
KPD3 251822Z 15009KT 24/21 A30 RMK A01 T02430210  RH  082%=      5-min Rain = 0
KPD3 251823Z 14011KT 24/21 A30 RMK A01 T02440210  RH  081%=      5-min Rain = 0
KPD3 251824Z 15010KT 24/21 A30 RMK A01 T02440209  RH  081%=      5-min Rain = 0
KPD3 251825Z 15011KT 24/21 A30 RMK A01 T02440209  RH  081%=      5-min Rain = 0
KPD3 251826Z 15010KT 24/21 A30 RMK A01 T02440209  RH  081%=      5-min Rain = 0
KPD3 251827Z 15011KT 24/21 A30 RMK A01 T02440209  RH  081%=      5-min Rain = 0
KPD3 251828Z 15009KT 24/21 A30 RMK A01 T02440210  RH  082%=      5-min Rain = 0
KPD3 251829Z 15009KT 24/21 A30 RMK A01 T02440209  RH  081%=      5-min Rain = 0
KPD3 251830Z 14011KT 24/21 A30 RMK A01 T02440209  RH  081%=      5-min Rain = 0
KPD3 251831Z 14011KT 24/21 A30 RMK A01 T02440209  RH  081%=      5-min Rain = 0
KPD3 251832Z 14011KT 24/21 A2999 RMK A01 T02440210  RH  081%=      5-min Rain = 0
KPD3 251833Z 15011KT 24/21 A2999 RMK A01 T02440210  RH  081%=      5-min Rain = 0
KPD3 251834Z 16011KT 24/21 A2999 RMK A01 T02440209  RH  081%=      5-min Rain = 0
KPD3 251835Z 15010KT 24/21 A2999 RMK A01 T02430209  RH  081%=      5-min Rain = 0
KPD3 251836Z 15012KT 24/21 A2999 RMK A01 T02440209  RH  081%=      5-min Rain = 0
KPD3 251837Z 16011KT 24/21 A2999 RMK A01 T02440208  RH  081%=      5-min Rain = 0
KPD3 251838Z 16011KT 24/21 A2999 RMK A01 T02430208  RH  081%=      5-min Rain = 0
KPD3 251839Z 16009KT 24/21 A2999 RMK A01 T02420208  RH  081%=      5-min Rain = 0
KPD3 251840Z 16010KT 24/21 A2999 RMK A01 T02420210  RH  082%=      5-min Rain = 0
KPD3 251841Z 16009KT 24/21 A2999 RMK A01 T02420210  RH  082%=      5-min Rain = 0
KPD3 251842Z 15011KT 24/21 A2999 RMK A01 T02430211  RH  083%=      5-min Rain = 0
KPD3 251843Z 14010KT 24/21 A2998 RMK A01 T02430210  RH  082%=      5-min Rain = 0
KPD3 251844Z 14012KT 24/21 A2998 RMK A01 T02430210  RH  082%=      5-min Rain = 0
KPD3 251845Z 14012KT 24/21 A2998 RMK A01 T02420209  RH  082%=      5-min Rain = 0
KPD3 251846Z 14011KT 24/21 A2998 RMK A01 T02420209  RH  082%=      5-min Rain = 0
KPD3 251847Z 14009KT 24/21 A2998 RMK A01 T02420210  RH  082%=      5-min Rain = 0
KPD3 251848Z 15010KT 24/21 A2998 RMK A01 T02420211  RH  083%=      5-min Rain = 0
KPD3 251849Z 15011KT 24/21 A2998 RMK A01 T02430210  RH  082%=      5-min Rain = 0
KPD3 251850Z 16011KT 24/21 A2998 RMK A01 T02430210  RH  082%=      5-min Rain = 0
KPD3 251851Z 15008KT 24/21 A2998 RMK A01 T02430211  RH  082%=      5-min Rain = 0
KPD3 251852Z 15011KT 24/21 A2998 RMK A01 T02440212  RH  082%=      5-min Rain = 0
KPD3 251853Z 15010KT 24/21 A2998 RMK A01 T02440210  RH  081%=      5-min Rain = 0
KPD3 251854Z 15009KT 24/21 A2998 RMK A01 T02440211  RH  082%=      5-min Rain = 0
KPD3 251855Z 15009KT 24/21 A2998 RMK A01 T02440212  RH  082%=      5-min Rain = 0
KPD3 251856Z 15009KT 24/21 A2998 RMK A01 T02440211  RH  082%=      5-min Rain = 0
KPD3 251857Z 15010KT 25/21 A2998 RMK A01 T02450211  RH  082%=      5-min Rain = 0
KPD3 251858Z 15010KT 25/21 A2998 RMK A01 T02450212  RH  082%=      5-min Rain = 0
KPD3 251859Z 15011KT 24/21 A2997 RMK A01 T02440212  RH  082%=      5-min Rain = 0
KPD3 251900Z 15011KT 24/21 A2997 RMK A01 T02440211  RH  082%=      5-min Rain = 0
KPD3 251901Z 15011KT 24/21 A2997 RMK A01 T02430211  RH  082%=      5-min Rain = 0
KPD3 251902Z 15012KT 24/21 A2997 RMK A01 T02430211  RH  082%=      5-min Rain = 0
KPD3 251903Z 16012KT 24/21 A2997 RMK A01 T02430211  RH  082%=      5-min Rain = 0
KPD3 251904Z 15013KT 24/21 A2997 RMK A01 T02430211  RH  083%=      5-min Rain = 0
KPD3 251905Z 16012KT 24/21 A2997 RMK A01 T02430211  RH  082%=      5-min Rain = 0
KPD3 251906Z 15011KT 24/21 A2997 RMK A01 T02430211  RH  083%=      5-min Rain = 0
KPD3 251907Z 15011KT 24/21 A2997 RMK A01 T02430212  RH  083%=      5-min Rain = 0
KPD3 251908Z 15014KT 24/21 A2997 RMK A01 T02430211  RH  082%=      5-min Rain = 0
KPD3 251909Z 15015KT 24/21 A2997 RMK A01 T02430211  RH  082%=      5-min Rain = 0
KPD3 251910Z 15013KT 24/21 A2997 RMK A01 T02420210  RH  082%=      5-min Rain = 0
KPD3 251911Z 16014KT 24/21 A2997 RMK A01 T02420210  RH  083%=      5-min Rain = 0
KPD3 251912Z 15013KT 24/21 A2997 RMK A01 T02410210  RH  083%=      5-min Rain = 0
KPD3 251913Z 15012KT 24/21 A2997 RMK A01 T02410211  RH  083%=      5-min Rain = 0
KPD3 251914Z 15013KT 24/21 A2997 RMK A01 T02410210  RH  083%=      5-min Rain = 0
KPD3 251915Z 15013KT 24/21 A2996 RMK A01 T02400210  RH  083%=      5-min Rain = 0
KPD3 251916Z 15013KT 24/21 A2996 RMK A01 T02400209  RH  083%=      5-min Rain = 0
KPD3 251917Z 15013KT 24/21 A2996 RMK A01 T02390208  RH  083%=      5-min Rain = 0
KPD3 251918Z 16014KT 24/21 A2996 RMK A01 T02390207  RH  083%=      5-min Rain = 0
KPD3 251919Z 15014KT 24/21 A2996 RMK A01 T02390207  RH  082%=      5-min Rain = 0
KPD3 251920Z 15011KT 24/21 A2996 RMK A01 T02380207  RH  083%=      5-min Rain = 0
KPD3 251921Z 15012KT 24/21 A2996 RMK A01 T02390208  RH  083%=      5-min Rain = 0
KPD3 251922Z 15012KT 24/21 A2996 RMK A01 T02380208  RH  083%=      5-min Rain = 0
KPD3 251923Z 15013KT 24/21 A2996 RMK A01 T02390208  RH  083%=      5-min Rain = 0
KPD3 251924Z 14014KT 24/21 A2996 RMK A01 T02380208  RH  083%=      5-min Rain = 0
KPD3 251925Z 15014KT 24/21 A2996 RMK A01 T02380207  RH  083%=      5-min Rain = 0
KPD3 251926Z 15011KT 24/21 A2996 RMK A01 T02380207  RH  083%=      5-min Rain = 0
KPD3 251927Z 15011KT 24/21 A2996 RMK A01 T02370208  RH  083%=      5-min Rain = 0
KPD3 251928Z 15012KT 24/21 A2996 RMK A01 T02370207  RH  083%=      5-min Rain = 0
KPD3 251929Z 15013KT 24/21 A2997 RMK A01 T02370206  RH  083%=      5-min Rain = 0
KPD3 251930Z 15013KT 24/21 A2997 RMK A01 T02370206  RH  083%=      5-min Rain = 0
KPD3 251931Z 16012KT 24/21 A2997 RMK A01 T02370206  RH  083%=      5-min Rain = 0
KPD3 251932Z 15010KT 24/21 A2997 RMK A01 T02370207  RH  083%=      5-min Rain = 0
KPD3 251933Z 16010KT 24/21 A2997 RMK A01 T02370207  RH  084%=      5-min Rain = 0
KPD3 251934Z 16011KT 24/21 A2997 RMK A01 T02370208  RH  084%=      5-min Rain = 0
KPD3 251935Z 16010KT 24/21 A2997 RMK A01 T02370207  RH  084%=      5-min Rain = 0
KPD3 251936Z 15012KT 24/21 A2997 RMK A01 T02370208  RH  084%=      5-min Rain = 0
KPD3 251937Z 15012KT 24/21 A2997 RMK A01 T02370208  RH  084%=      5-min Rain = 0
KPD3 251938Z 15012KT 24/21 A2997 RMK A01 T02360207  RH  084%=      5-min Rain = 0
KPD3 251939Z 15014KT 24/21 A2997 RMK A01 T02360207  RH  084%=      5-min Rain = 0
KPD3 251940Z 15013KT 24/21 A2997 RMK A01 T02360206  RH  084%=      5-min Rain = 0
KPD3 251941Z 15011KT 24/21 A2997 RMK A01 T02360207  RH  084%=      5-min Rain = 0
KPD3 251942Z 15012KT 24/21 A2997 RMK A01 T02360207  RH  084%=      5-min Rain = 0
KPD3 251943Z 15012KT 24/21 A2997 RMK A01 T02350207  RH  084%=      5-min Rain = 0
KPD3 251944Z 16012KT 24/21 A2997 RMK A01 T02350206  RH  084%=      5-min Rain = 0
KPD3 251945Z 16012KT 24/21 A2997 RMK A01 T02350207  RH  084%=      5-min Rain = 0
KPD3 251946Z 15013KT 23/21 A2997 RMK A01 T02340206  RH  084%=      5-min Rain = 0
KPD3 251947Z 15012KT 23/21 A2996 RMK A01 T02340206  RH  084%=      5-min Rain = 0
KPD3 251948Z 16013KT 23/21 A2996 RMK A01 T02340207  RH  084%=      5-min Rain = 0
KPD3 251949Z 15012KT 23/21 A2996 RMK A01 T02340206  RH  084%=      5-min Rain = 0
KPD3 251950Z 16011KT 23/21 A2996 RMK A01 T02340207  RH  085%=      5-min Rain = 0
KPD3 251951Z 15012KT 23/21 A2996 RMK A01 T02330207  RH  085%=      5-min Rain = 0
KPD3 251952Z 15012KT 23/21 A2996 RMK A01 T02330207  RH  085%=      5-min Rain = 0
KPD3 251953Z 15010KT 23/21 A2996 RMK A01 T02330207  RH  085%=      5-min Rain = 0
KPD3 251954Z 15013KT 23/21 A2996 RMK A01 T02330207  RH  085%=      5-min Rain = 0
KPD3 251955Z 16012KT 23/21 A2996 RMK A01 T02330206  RH  085%=      5-min Rain = 0
KPD3 251956Z 15010KT 23/21 A2996 RMK A01 T02330206  RH  085%=      5-min Rain = 0
KPD3 251957Z 15012KT 23/21 A2996 RMK A01 T02330206  RH  085%=      5-min Rain = 0
KPD3 251958Z 15014KT 23/21 A2995 RMK A01 T02330205  RH  084%=      5-min Rain = 0
KPD3 251959Z 16013KT 23/21 A2995 RMK A01 T02330206  RH  084%=      5-min Rain = 0
KPD3 252000Z 15014KT 23/21 A2995 RMK A01 T02330205  RH  084%=      5-min Rain = 0
KPD3 252001Z 16014KT 23/21 A2995 RMK A01 T02330205  RH  084%=      5-min Rain = 0
KPD3 252002Z 15013KT 23/21 A2996 RMK A01 T02330205  RH  084%=      5-min Rain = 0
KPD3 252003Z 15013KT 23/21 A2996 RMK A01 T02330205  RH  084%=      5-min Rain = 0
KPD3 252004Z 15013KT 23/21 A2996 RMK A01 T02330205  RH  084%=      5-min Rain = 0
KPD3 252005Z 15014KT 23/21 A2996 RMK A01 T02330205  RH  084%=      5-min Rain = 0
KPD3 252006Z 16014KT 23/21 A2996 RMK A01 T02330205  RH  084%=      5-min Rain = 0
KPD3 252007Z 16013KT 23/21 A2995 RMK A01 T02330205  RH  084%=      5-min Rain = 0
KPD3 252008Z 16012KT 23/20 A2995 RMK A01 T02330204  RH  084%=      5-min Rain = 0
KPD3 252009Z 16012KT 23/20 A2995 RMK A01 T02330204  RH  084%=      5-min Rain = 0
KPD3 252010Z 15010KT 23/20 A2995 RMK A01 T02320204  RH  084%=      5-min Rain = 0
KPD3 252011Z 15011KT 23/20 A2994 RMK A01 T02320204  RH  085%=      5-min Rain = 0
KPD3 252012Z 15009KT 23/21 A2994 RMK A01 T02320205  RH  085%=      5-min Rain = 0
KPD3 252013Z 15010KT 23/21 A2994 RMK A01 T02310205  RH  085%=      5-min Rain = 0
KPD3 252014Z 15010KT 23/21 A2994 RMK A01 T02310205  RH  085%=      5-min Rain = 0
KPD3 252015Z 15011KT 23/21 A2994 RMK A01 T02310205  RH  085%=      5-min Rain = 0
KPD3 252016Z 15010KT 23/21 A2994 RMK A01 T02310205  RH  085%=      5-min Rain = 0
KPD3 252017Z 15009KT 23/21 A2994 RMK A01 T02310205  RH  086%=      5-min Rain = 0
KPD3 252018Z 15009KT 23/21 A2994 RMK A01 T02310206  RH  086%=      5-min Rain = 0
KPD3 252019Z 15011KT 23/21 A2994 RMK A01 T02300205  RH  086%=      5-min Rain = 0
KPD3 252020Z 15009KT 23/21 A2994 RMK A01 T02300206  RH  086%=      5-min Rain = 0
KPD3 252021Z 15008KT 23/21 A2994 RMK A01 T02300206  RH  086%=      5-min Rain = 0
KPD3 252022Z 15009KT 23/21 A2994 RMK A01 T02300206  RH  086%=      5-min Rain = 0
KPD3 252023Z 15008KT 23/21 A2994 RMK A01 T02290206  RH  086%=      5-min Rain = 0
KPD3 252024Z 15009KT 23/21 A2994 RMK A01 T02290205  RH  086%=      5-min Rain = 0
KPD3 252025Z 15008KT 23/21 A2995 RMK A01 T02290206  RH  087%=      5-min Rain = 0
KPD3 252026Z 15007KT 23/21 A2995 RMK A01 T02290206  RH  087%=      5-min Rain = 0
KPD3 252027Z 15009KT 23/21 A2995 RMK A01 T02290206  RH  087%=      5-min Rain = 0
KPD3 252028Z 15008KT 23/21 A2994 RMK A01 T02280206  RH  087%=      5-min Rain = 0
KPD3 252029Z 15009KT 23/21 A2994 RMK A01 T02280206  RH  087%=      5-min Rain = 0
KPD3 252030Z 15009KT 23/21 A2994 RMK A01 T02280206  RH  087%=      5-min Rain = 0
KPD3 252031Z 15008KT 23/21 A2994 RMK A01 T02280206  RH  087%=      5-min Rain = 0
KPD3 252032Z 15008KT 23/21 A2994 RMK A01 T02280206  RH  087%=      5-min Rain = 0
KPD3 252033Z 15008KT 23/21 A2994 RMK A01 T02270205  RH  087%=      5-min Rain = 0
KPD3 252034Z 16008KT 23/21 A2994 RMK A01 T02270206  RH  087%=      5-min Rain = 0
KPD3 252035Z 16009KT 23/21 A2995 RMK A01 T02270206  RH  088%=      5-min Rain = 0
KPD3 252036Z 16009KT 23/21 A2995 RMK A01 T02270206  RH  088%=      5-min Rain = 0
KPD3 252037Z 16009KT 23/21 A2994 RMK A01 T02270205  RH  088%=      5-min Rain = 0
KPD3 252038Z 15009G14KT 23/21 A2994 RMK A01 T02270206  RH  088%=      5-min Rain = 0
KPD3 252039Z 15010KT 23/21 A2994 RMK A01 T02270206  RH  088%=      5-min Rain = 0
KPD3 252040Z 15008KT 23/21 A2994 RMK A01 T02270205  RH  088%=      5-min Rain = 0
KPD3 252041Z 16009KT 23/21 A2994 RMK A01 T02270205  RH  088%=      5-min Rain = 0
KPD3 252042Z 16009KT 23/21 A2994 RMK A01 T02270205  RH  088%=      5-min Rain = 0
KPD3 252043Z 16009KT 23/21 A2994 RMK A01 T02270205  RH  088%=      5-min Rain = 0
KPD3 252044Z 16008KT 23/21 A2994 RMK A01 T02260205  RH  088%=      5-min Rain = 0
KPD3 252045Z 17008KT 23/21 A2994 RMK A01 T02260206  RH  088%=      5-min Rain = 0
KPD3 252046Z 17008KT 23/21 A2994 RMK A01 T02260206  RH  088%=      5-min Rain = 0
KPD3 252047Z 17008KT 23/21 A2994 RMK A01 T02260206  RH  089%=      5-min Rain = 0
KPD3 252048Z 17008KT 23/21 A2994 RMK A01 T02250206  RH  089%=      5-min Rain = 0
KPD3 252049Z 17008KT 23/21 A2994 RMK A01 T02250206  RH  089%=      5-min Rain = 0
KPD3 252050Z 16008KT 23/21 A2994 RMK A01 T02250206  RH  089%=      5-min Rain = 0
KPD3 252051Z 16008KT 23/21 A2994 RMK A01 T02250206  RH  089%=      5-min Rain = 0
KPD3 252052Z 16007KT 23/21 A2994 RMK A01 T02250206  RH  089%=      5-min Rain = 0
KPD3 252053Z 17007KT 23/21 A2994 RMK A01 T02250206  RH  089%=      5-min Rain = 0
KPD3 252054Z 17006KT 22/21 A2994 RMK A01 T02240206  RH  089%=      5-min Rain = 0
KPD3 252055Z 17006KT 22/21 A2994 RMK A01 T02240206  RH  090%=      5-min Rain = 0
KPD3 252056Z 18005KT 22/21 A2994 RMK A01 T02240207  RH  090%=      5-min Rain = 0
KPD3 252057Z 19005KT 22/21 A2994 RMK A01 T02240207  RH  090%=      5-min Rain = 0
KPD3 252058Z 21006KT 22/21 A2994 RMK A01 T02240207  RH  090%=      5-min Rain = 0
KPD3 252059Z 21006KT 22/21 A2994 RMK A01 T02230207  RH  090%=      5-min Rain = 0
KPD3 252100Z 22007KT 22/21 A2995 RMK A01 T02230207  RH  090%=      5-min Rain = 0
KPD3 252101Z 22007KT 22/21 A2995 RMK A01 T02230208  RH  091%=      5-min Rain = 0
KPD3 252102Z 22008KT 22/21 A2995 RMK A01 T02220207  RH  091%=      5-min Rain = 0.01
KPD3 252103Z 22009KT 22/21 A2995 RMK A01 T02220208  RH  092%=      5-min Rain = 0
KPD3 252104Z 22009KT 22/21 A2995 RMK A01 T02210208  RH  092%=      5-min Rain = 0
KPD3 252105Z 21009KT 22/21 A2996 RMK A01 T02210208  RH  092%=      5-min Rain = 0.01
KPD3 252106Z 20009KT 22/21 A2996 RMK A01 T02200208  RH  093%=      5-min Rain = 0.03
KPD3 252107Z 20008KT 22/21 A2996 RMK A01 T02200208  RH  093%=      5-min Rain = 0.01
KPD3 252108Z 20007KT 22/21 A2996 RMK A01 T02190208  RH  094%=      5-min Rain = 0.01
KPD3 252109Z 21007KT 22/21 A2996 RMK A01 T02180208  RH  094%=      5-min Rain = 0
KPD3 252110Z 22008KT 22/21 A2996 RMK A01 T02170208  RH  095%=      5-min Rain = 0
KPD3 252111Z 23009KT 22/21 A2995 RMK A01 T02170208  RH  095%=      5-min Rain = 0.01
KPD3 252112Z 24010KT 22/21 A2996 RMK A01 T02170209  RH  095%=      5-min Rain = 0
KPD3 252113Z 24011KT 22/21 A2996 RMK A01 T02170209  RH  095%=      5-min Rain = 0
KPD3 252114Z 24012KT 22/21 A2997 RMK A01 T02170209  RH  095%=      5-min Rain = 0
KPD3 252115Z 24013G18KT 22/21 A2997 RMK A01 T02170209  RH  095%=      5-min Rain = 0
KPD3 252116Z 23014G19KT 22/21 A2997 RMK A01 T02170209  RH  095%=      5-min Rain = 0
KPD3 252117Z 23014KT 22/21 A2997 RMK A01 T02170208  RH  095%=      5-min Rain = 0.01
KPD3 252118Z 23016KT 22/21 A2997 RMK A01 T02170207  RH  094%=      5-min Rain = 0
KPD3 252119Z 23016KT 22/21 A2997 RMK A01 T02170207  RH  094%=      5-min Rain = 0
KPD3 252120Z 24016KT 22/21 A2996 RMK A01 T02170207  RH  094%=      5-min Rain = 0.01
KPD3 252121Z 23015KT 22/21 A2996 RMK A01 T02170207  RH  094%=      5-min Rain = 0.01
KPD3 252122Z 22015KT 22/21 A2997 RMK A01 T02170207  RH  094%=      5-min Rain = 0
KPD3 252123Z 22017G22KT 22/21 A2997 RMK A01 T02160207  RH  094%=      5-min Rain = 0.01
KPD3 252124Z 21020KT 22/21 A2998 RMK A01 T02160207  RH  094%=      5-min Rain = 0.02
KPD3 252125Z 21017G22KT 22/21 A2998 RMK A01 T02160207  RH  095%=      5-min Rain = 0.03
KPD3 252126Z 20017G22KT 22/21 A2998 RMK A01 T02150206  RH  095%=      5-min Rain = 0.02
KPD3 252127Z 19018KT 21/21 A2997 RMK A01 T02140207  RH  095%=      5-min Rain = 0.03
KPD3 252128Z 19023G30KT 21/21 A2996 RMK A01 T02130206  RH  096%=      5-min Rain = 0.05
KPD3 252129Z 19021G30KT 21/19 A2994 RMK A01 T02060192  RH  092%=      5-min Rain = 0.05
KPD3 252130Z 18013G19KT 20/18 A2992 RMK A01 T01950177  RH  090%=      5-min Rain = 0.03
KPD3 252131Z 16015G21KT 19/17 A2991 RMK A01 T01900174  RH  090%=      5-min Rain = 0.01
KPD3 252132Z 16019KT 19/17 A2992 RMK A01 T01880173  RH  091%=      5-min Rain = 0
KPD3 252133Z 16019KT 19/18 A2992 RMK A01 T01870175  RH  092%=      5-min Rain = 0
KPD3 252134Z 17017KT 19/18 A2992 RMK A01 T01880177  RH  093%=      5-min Rain = 0
KPD3 252135Z 17016KT 19/18 A2991 RMK A01 T01900180  RH  094%=      5-min Rain = 0
KPD3 252136Z 18016KT 19/18 A2991 RMK A01 T01920183  RH  094%=      5-min Rain = 0
KPD3 252137Z 19015KT 19/18 A2991 RMK A01 T01940184  RH  094%=      5-min Rain = 0
KPD3 252138Z 19014KT 20/19 A2991 RMK A01 T01950185  RH  094%=      5-min Rain = 0
KPD3 252139Z 18014KT 20/19 A2991 RMK A01 T01980190  RH  095%=      5-min Rain = 0
KPD3 252140Z 18016KT 20/19 A2991 RMK A01 T02010193  RH  095%=      5-min Rain = 0
KPD3 252141Z 19012KT 20/20 A2991 RMK A01 T02030196  RH  096%=      5-min Rain = 0
KPD3 252142Z 19012KT 21/20 A2991 RMK A01 T02060198  RH  096%=      5-min Rain = 0
KPD3 252143Z 19015KT 21/20 A2991 RMK A01 T02070196  RH  093%=      5-min Rain = 0
KPD3 252144Z 20014KT 21/19 A2991 RMK A01 T02080192  RH  090%=      5-min Rain = 0
KPD3 252145Z 21014KT 21/19 A2991 RMK A01 T02100193  RH  090%=      5-min Rain = 0
KPD3 252146Z 21014KT 21/19 A2992 RMK A01 T02120193  RH  089%=      5-min Rain = 0
KPD3 252147Z 22014KT 21/19 A2992 RMK A01 T02120194  RH  090%=      5-min Rain = 0
KPD3 252148Z 21014KT 21/20 A2992 RMK A01 T02120195  RH  090%=      5-min Rain = 0
KPD3 252149Z 20011KT 21/19 A2991 RMK A01 T02120194  RH  089%=      5-min Rain = 0
KPD3 252150Z 19010KT 21/20 A2991 RMK A01 T02130195  RH  089%=      5-min Rain = 0
KPD3 252151Z 18011KT 21/19 A2991 RMK A01 T02130194  RH  089%=      5-min Rain = 0
KPD3 252152Z 18012KT 21/19 A2991 RMK A01 T02130194  RH  089%=      5-min Rain = 0
KPD3 252153Z 18011KT 21/20 A299 RMK A01 T02130195  RH  089%=      5-min Rain = 0
KPD3 252154Z 19009KT 21/20 A299 RMK A01 T02140196  RH  090%=      5-min Rain = 0
KPD3 252155Z 19010KT 21/20 A299 RMK A01 T02140198  RH  091%=      5-min Rain = 0
KPD3 252156Z 19013KT 21/20 A2991 RMK A01 T02130198  RH  091%=      5-min Rain = 0
KPD3 252157Z 19012KT 21/20 A2991 RMK A01 T02130195  RH  090%=      5-min Rain = 0
KPD3 252158Z 19013KT 21/19 A2991 RMK A01 T02120191  RH  088%=      5-min Rain = 0
KPD3 252159Z 20011KT 21/19 A2991 RMK A01 T02120190  RH  088%=      5-min Rain = 0
KPD3 252200Z 19011KT 21/19 A2991 RMK A01 T02110191  RH  088%=      5-min Rain = 0
KPD3 252201Z 19011KT 21/19 A2991 RMK A01 T02100190  RH  088%=      5-min Rain = 0
KPD3 252202Z 19010KT 21/19 A2992 RMK A01 T02090190  RH  089%=      5-min Rain = 0
KPD3 252203Z 20009KT 21/19 A2991 RMK A01 T02090191  RH  090%=      5-min Rain = 0
KPD3 252204Z 20008KT 21/19 A2991 RMK A01 T02080191  RH  090%=      5-min Rain = 0
KPD3 252205Z 19008KT 21/19 A2991 RMK A01 T02080192  RH  090%=      5-min Rain = 0.01
KPD3 252206Z 18007KT 21/19 A2991 RMK A01 T02080193  RH  091%=      5-min Rain = 0
KPD3 252207Z 18007KT 21/19 A2992 RMK A01 T02080194  RH  091%=      5-min Rain = 0
KPD3 252208Z 18008KT 21/19 A2992 RMK A01 T02080194  RH  092%=      5-min Rain = 0
KPD3 252209Z 17008KT 21/20 A2992 RMK A01 T02080195  RH  092%=      5-min Rain = 0
KPD3 252210Z 17007KT 21/20 A2992 RMK A01 T02080195  RH  092%=      5-min Rain = 0
KPD3 252211Z 17006KT 21/20 A2992 RMK A01 T02090196  RH  092%=      5-min Rain = 0
KPD3 252212Z 18004KT 21/20 A2992 RMK A01 T02090197  RH  092%=      5-min Rain = 0
KPD3 252213Z 20005KT 21/20 A2992 RMK A01 T02090197  RH  093%=      5-min Rain = 0
KPD3 252214Z 21005KT 21/20 A2992 RMK A01 T02090197  RH  093%=      5-min Rain = 0
KPD3 252215Z 22004KT 21/20 A2992 RMK A01 T02090198  RH  093%=      5-min Rain = 0
KPD3 252216Z 23004KT 21/20 A2992 RMK A01 T02090198  RH  093%=      5-min Rain = 0
KPD3 252217Z 22003KT 21/20 A2992 RMK A01 T02090198  RH  093%=      5-min Rain = 0
KPD3 252218Z 21004KT 21/20 A2992 RMK A01 T02090198  RH  094%=      5-min Rain = 0
KPD3 252219Z 20003KT 21/20 A2992 RMK A01 T02090198  RH  094%=      5-min Rain = 0
KPD3 252220Z 19003KT 21/20 A2992 RMK A01 T02090198  RH  094%=      5-min Rain = 0
KPD3 252221Z 17003KT 21/20 A2991 RMK A01 T02090199  RH  094%=      5-min Rain = 0
KPD3 252222Z 15003KT 21/20 A2991 RMK A01 T02090199  RH  094%=      5-min Rain = 0
KPD3 252223Z 16003KT 21/20 A2991 RMK A01 T02090199  RH  094%=      5-min Rain = 0
KPD3 252224Z 14003KT 21/20 A2991 RMK A01 T02090199  RH  094%=      5-min Rain = 0
KPD3 252225Z 16002KT 21/20 A2991 RMK A01 T02090200  RH  094%=      5-min Rain = 0
KPD3 252226Z 16003KT 21/20 A2991 RMK A01 T02080200  RH  095%=      5-min Rain = 0
KPD3 252227Z 17003KT 21/20 A2991 RMK A01 T02080200  RH  095%=      5-min Rain = 0
KPD3 252228Z 20003KT 21/20 A2991 RMK A01 T02090200  RH  095%=      5-min Rain = 0
KPD3 252229Z 22004KT 21/20 A2992 RMK A01 T02090200  RH  095%=      5-min Rain = 0
KPD3 252230Z 23005KT 21/20 A2993 RMK A01 T02090201  RH  095%=      5-min Rain = 0
KPD3 252231Z 23005KT 21/20 A2993 RMK A01 T02090201  RH  095%=      5-min Rain = 0
KPD3 252232Z 24005KT 21/20 A2993 RMK A01 T02090201  RH  095%=      5-min Rain = 0
KPD3 252233Z 24004KT 21/20 A2994 RMK A01 T02090201  RH  095%=      5-min Rain = 0
KPD3 252234Z 24005KT 21/20 A2994 RMK A01 T02080201  RH  096%=      5-min Rain = 0
KPD3 252235Z 25005KT 21/20 A2993 RMK A01 T02090201  RH  096%=      5-min Rain = 0
KPD3 252236Z 26004KT 21/20 A2993 RMK A01 T02080201  RH  096%=      5-min Rain = 0
KPD3 252237Z 27004KT 21/20 A2993 RMK A01 T02080201  RH  096%=      5-min Rain = 0
KPD3 252238Z 26004KT 21/20 A2993 RMK A01 T02080201  RH  096%=      5-min Rain = 0
KPD3 252239Z 25004KT 21/20 A2993 RMK A01 T02080202  RH  096%=      5-min Rain = 0
KPD3 252240Z 25004KT 21/20 A2994 RMK A01 T02080202  RH  096%=      5-min Rain = 0
KPD3 252241Z 25004KT 21/20 A2994 RMK A01 T02080202  RH  096%=      5-min Rain = 0
KPD3 252242Z 25004KT 21/20 A2994 RMK A01 T02080202  RH  096%=      5-min Rain = 0
KPD3 252243Z 24005KT 21/20 A2994 RMK A01 T02080202  RH  096%=      5-min Rain = 0
KPD3 252244Z 24005KT 21/20 A2994 RMK A01 T02080202  RH  096%=      5-min Rain = 0
KPD3 252245Z 23005KT 21/20 A2994 RMK A01 T02080202  RH  096%=      5-min Rain = 0
KPD3 252246Z 23005KT 21/20 A2994 RMK A01 T02080200  RH  095%=      5-min Rain = 0
KPD3 252247Z 23004KT 21/20 A2994 RMK A01 T02090200  RH  095%=      5-min Rain = 0
KPD3 252248Z 22004KT 21/20 A2994 RMK A01 T02100199  RH  094%=      5-min Rain = 0
KPD3 252249Z 23003KT 21/20 A2994 RMK A01 T02100199  RH  093%=      5-min Rain = 0
KPD3 252250Z 25004KT 21/20 A2994 RMK A01 T02110198  RH  092%=      5-min Rain = 0
KPD3 252251Z 26005KT 21/20 A2994 RMK A01 T02110198  RH  092%=      5-min Rain = 0
KPD3 252252Z 27005KT 21/20 A2994 RMK A01 T02110199  RH  092%=      5-min Rain = 0
KPD3 252253Z 28007KT 21/20 A2995 RMK A01 T02110199  RH  092%=      5-min Rain = 0
KPD3 252254Z 28008KT 21/20 A2995 RMK A01 T02110199  RH  093%=      5-min Rain = 0
KPD3 252255Z 28008KT 21/20 A2995 RMK A01 T02110199  RH  093%=      5-min Rain = 0
KPD3 252256Z 28009KT 21/20 A2995 RMK A01 T02100199  RH  093%=      5-min Rain = 0
KPD3 252257Z 29010KT 21/20 A2995 RMK A01 T02100198  RH  093%=      5-min Rain = 0
KPD3 252258Z 29010KT 21/20 A2995 RMK A01 T02100199  RH  093%=      5-min Rain = 0
KPD3 252259Z 30009KT 21/20 A2995 RMK A01 T02090198  RH  094%=      5-min Rain = 0
KPD3 252300Z 30009KT 21/20 A2994 RMK A01 T02090198  RH  094%=      5-min Rain = 0
KPD3 252301Z 30009KT 21/20 A2994 RMK A01 T02090199  RH  094%=      5-min Rain = 0.01
KPD3 252302Z 30009KT 21/20 A2994 RMK A01 T02090199  RH  094%=      5-min Rain = 0
KPD3 252303Z 30008KT 21/20 A2994 RMK A01 T02090198  RH  094%=      5-min Rain = 0
KPD3 252304Z 30008KT 21/20 A2995 RMK A01 T02090198  RH  094%=      5-min Rain = 0
KPD3 252305Z 29007KT 21/20 A2995 RMK A01 T02090198  RH  094%=      5-min Rain = 0
KPD3 252306Z 28007KT 21/20 A2995 RMK A01 T02090199  RH  094%=      5-min Rain = 0
KPD3 252307Z 28008KT 21/20 A2995 RMK A01 T02090199  RH  094%=      5-min Rain = 0
KPD3 252308Z 27007KT 21/20 A2995 RMK A01 T02100199  RH  094%=      5-min Rain = 0
KPD3 252309Z 27006KT 21/20 A2995 RMK A01 T02090199  RH  094%=      5-min Rain = 0
KPD3 252310Z 28006KT 21/20 A2995 RMK A01 T02090198  RH  094%=      5-min Rain = 0.01
KPD3 252311Z 27006KT 21/20 A2994 RMK A01 T02090198  RH  093%=      5-min Rain = 0.01
KPD3 252312Z 27006KT 21/20 A2994 RMK A01 T02090197  RH  093%=      5-min Rain = 0
KPD3 252313Z 27004KT 21/20 A2994 RMK A01 T02090196  RH  092%=      5-min Rain = 0
KPD3 252314Z 27004KT 21/20 A2994 RMK A01 T02090197  RH  093%=      5-min Rain = 0.01
KPD3 252315Z 26003KT 21/20 A2993 RMK A01 T02090197  RH  093%=      5-min Rain = 0
KPD3 252316Z 26003KT 21/20 A2993 RMK A01 T02090197  RH  093%=      5-min Rain = 0
KPD3 252317Z 26002KT 21/20 A2993 RMK A01 T02080196  RH  093%=      5-min Rain = 0
KPD3 252318Z 25003KT 21/20 A2993 RMK A01 T02080196  RH  093%=      5-min Rain = 0
KPD3 252319Z 25002KT 21/20 A2993 RMK A01 T02080195  RH  092%=      5-min Rain = 0
KPD3 252320Z 25003KT 21/20 A2994 RMK A01 T02080195  RH  092%=      5-min Rain = 0.01
KPD3 252321Z 25002KT 21/20 A2994 RMK A01 T02080195  RH  092%=      5-min Rain = 0
KPD3 252322Z 24002KT 21/20 A2994 RMK A01 T02080195  RH  092%=      5-min Rain = 0
KPD3 252323Z 24002KT 21/20 A2994 RMK A01 T02080195  RH  092%=      5-min Rain = 0.01
KPD3 252324Z 24003KT 21/20 A2994 RMK A01 T02080195  RH  092%=      5-min Rain = 0
KPD3 252325Z 24003KT 21/20 A2994 RMK A01 T02070195  RH  093%=      5-min Rain = 0.01
KPD3 252326Z 26003KT 21/20 A2993 RMK A01 T02070195  RH  093%=      5-min Rain = 0.01
KPD3 252327Z 28003KT 21/20 A2993 RMK A01 T02070196  RH  093%=      5-min Rain = 0
KPD3 252328Z 30004KT 21/20 A2993 RMK A01 T02060196  RH  094%=      5-min Rain = 0
KPD3 252329Z 30005KT 21/20 A2993 RMK A01 T02060196  RH  094%=      5-min Rain = 0
KPD3 252330Z 29005KT 21/20 A2994 RMK A01 T02050196  RH  094%=      5-min Rain = 0.01
KPD3 252331Z 29005KT 21/20 A2994 RMK A01 T02050196  RH  095%=      5-min Rain = 0
KPD3 252332Z 28004KT 21/20 A2994 RMK A01 T02050196  RH  095%=      5-min Rain = 0
KPD3 252333Z 27003KT 21/20 A2995 RMK A01 T02050197  RH  095%=      5-min Rain = 0
KPD3 252334Z 26003KT 21/20 A2995 RMK A01 T02050197  RH  095%=      5-min Rain = 0.01
KPD3 252335Z 22002KT 20/20 A2995 RMK A01 T02040196  RH  095%=      5-min Rain = 0
KPD3 252336Z 21002KT 20/20 A2995 RMK A01 T02040196  RH  095%=      5-min Rain = 0
KPD3 252337Z 22003KT 20/20 A2995 RMK A01 T02040197  RH  095%=      5-min Rain = 0.01
KPD3 252338Z 23003KT 20/20 A2995 RMK A01 T02040197  RH  095%=      5-min Rain = 0.01
KPD3 252339Z 25003KT 20/20 A2995 RMK A01 T02040197  RH  095%=      5-min Rain = 0.01
KPD3 252340Z 26003KT 20/20 A2995 RMK A01 T02040197  RH  096%=      5-min Rain = 0.01
KPD3 252341Z 26004KT 20/20 A2995 RMK A01 T02040197  RH  096%=      5-min Rain = 0.01
KPD3 252342Z 25005KT 20/20 A2996 RMK A01 T02040197  RH  096%=      5-min Rain = 0.01
KPD3 252343Z 24007KT 20/20 A2997 RMK A01 T02040197  RH  096%=      5-min Rain = 0.01
KPD3 252344Z 24010KT 20/20 A2997 RMK A01 T02040198  RH  096%=      5-min Rain = 0.01
KPD3 252345Z 24011KT 20/20 A2998 RMK A01 T02040199  RH  097%=      5-min Rain = 0.02
KPD3 252346Z 24013KT 21/20 A2998 RMK A01 T02060201  RH  097%=      5-min Rain = 0.01
KPD3 252347Z 25014G19KT 21/20 A2997 RMK A01 T02070203  RH  097%=      5-min Rain = 0.01
KPD3 252348Z 25014KT 21/20 A2997 RMK A01 T02080204  RH  097%=      5-min Rain = 0.01
KPD3 252349Z 25014KT 21/20 A2997 RMK A01 T02080204  RH  097%=      5-min Rain = 0
KPD3 252350Z 25013KT 21/20 A2998 RMK A01 T02080204  RH  097%=      5-min Rain = 0.02
KPD3 252351Z 25013KT 21/20 A2997 RMK A01 T02090204  RH  097%=      5-min Rain = 0.02
KPD3 252352Z 25012KT 21/20 A2997 RMK A01 T02080203  RH  097%=      5-min Rain = 0.02
KPD3 252353Z 25012KT 21/20 A2997 RMK A01 T02080203  RH  097%=      5-min Rain = 0.02
KPD3 252354Z 25011KT 21/20 A2997 RMK A01 T02080203  RH  097%=      5-min Rain = 0.02
KPD3 252355Z 24011KT 21/20 A2997 RMK A01 T02080203  RH  097%=      5-min Rain = 0.01
KPD3 252356Z 24015KT 21/20 A2997 RMK A01 T02070202  RH  097%=      5-min Rain = 0.02
KPD3 252357Z 24013KT 21/20 A2997 RMK A01 T02060199  RH  096%=      5-min Rain = 0.01
KPD3 252358Z 23014KT 21/20 A2997 RMK A01 T02060197  RH  095%=      5-min Rain = 0.02
KPD3 252359Z 22015KT 21/20 A2997 RMK A01 T02050195  RH  094%=      5-min Rain = 0.01
KPD3 260000Z 21016KT 21/19 A2998 RMK A01 T02050194  RH  093%=      5-min Rain = 0.01
KPD3 260001Z 19020G28KT 20/19 A2998 RMK A01 T02040191  RH  093%=      5-min Rain = 0.02
KPD3 260002Z 18022G27KT 20/18 A2997 RMK A01 T02020182  RH  088%=      5-min Rain = 0.02
KPD3 260003Z 19024G29KT 20/17 A2997 RMK A01 T02000173  RH  084%=      5-min Rain = 0.02
KPD3 260004Z 18022G27KT 20/17 A2997 RMK A01 T01980166  RH  082%=      5-min Rain = 0.03
KPD3 260005Z 18017KT 20/17 A2996 RMK A01 T01960169  RH  084%=      5-min Rain = 0.02
KPD3 260006Z 17016KT 20/17 A2996 RMK A01 T01960167  RH  083%=      5-min Rain = 0.01
KPD3 260007Z 15016KT 20/17 A2995 RMK A01 T01960166  RH  083%=      5-min Rain = 0.01
KPD3 260008Z 16015KT 20/17 A2995 RMK A01 T01950168  RH  084%=      5-min Rain = 0.01
KPD3 260009Z 15012KT 19/17 A2994 RMK A01 T01940167  RH  084%=      5-min Rain = 0.01
KPD3 260010Z 15015KT 20/17 A2994 RMK A01 T01950165  RH  083%=      5-min Rain = 0.01
KPD3 260011Z 15014KT 20/16 A2994 RMK A01 T01960164  RH  082%=      5-min Rain = 0
KPD3 260012Z 14013KT 20/17 A2994 RMK A01 T01980167  RH  082%=      5-min Rain = 0
KPD3 260013Z 15012KT 20/17 A2994 RMK A01 T01990168  RH  082%=      5-min Rain = 0
KPD3 260014Z 14012KT 20/17 A2994 RMK A01 T01990170  RH  084%=      5-min Rain = 0
KPD3 260015Z 14014KT 20/17 A2994 RMK A01 T01980171  RH  085%=      5-min Rain = 0
KPD3 260016Z 15013KT 20/17 A2994 RMK A01 T01970171  RH  085%=      5-min Rain = 0
KPD3 260017Z 15015KT 20/17 A2995 RMK A01 T01980171  RH  085%=      5-min Rain = 0
KPD3 260018Z 15018G23KT 20/17 A2995 RMK A01 T01980172  RH  085%=      5-min Rain = 0
KPD3 260019Z 15022KT 20/17 A2996 RMK A01 T02010169  RH  082%=      5-min Rain = 0
KPD3 260020Z 16019KT 21/17 A2996 RMK A01 T02050171  RH  081%=      5-min Rain = 0
KPD3 260021Z 16016KT 21/17 A2997 RMK A01 T02060173  RH  081%=      5-min Rain = 0
KPD3 260022Z 16016KT 21/17 A2997 RMK A01 T02050174  RH  083%=      5-min Rain = 0
KPD3 260023Z 17017KT 20/18 A2998 RMK A01 T02030176  RH  084%=      5-min Rain = 0
KPD3 260024Z 17015KT 20/18 A2998 RMK A01 T02020177  RH  086%=      5-min Rain = 0
KPD3 260025Z 17013KT 20/18 A2998 RMK A01 T02000179  RH  088%=      5-min Rain = 0
KPD3 260026Z 16010KT 20/18 A2997 RMK A01 T01990180  RH  089%=      5-min Rain = 0
KPD3 260027Z 15008KT 20/18 A2997 RMK A01 T01970180  RH  090%=      5-min Rain = 0
KPD3 260028Z 12007KT 20/18 A2996 RMK A01 T01970180  RH  090%=      5-min Rain = 0
KPD3 260029Z 12007KT 20/18 A2996 RMK A01 T01950180  RH  091%=      5-min Rain = 0
KPD3 260030Z 13010KT 19/18 A2996 RMK A01 T01940180  RH  091%=      5-min Rain = 0
KPD3 260031Z 13012KT 19/18 A2996 RMK A01 T01920176  RH  091%=      5-min Rain = 0
KPD3 260032Z 13013KT 19/17 A2996 RMK A01 T01900173  RH  090%=      5-min Rain = 0
KPD3 260033Z 13012KT 19/17 A2995 RMK A01 T01890172  RH  090%=      5-min Rain = 0.01
KPD3 260034Z 13012KT 19/17 A2995 RMK A01 T01880170  RH  090%=      5-min Rain = 0
KPD3 260035Z 13011KT 19/17 A2994 RMK A01 T01870170  RH  090%=      5-min Rain = 0
KPD3 260036Z 12010KT 19/17 A2994 RMK A01 T01870171  RH  090%=      5-min Rain = 0
KPD3 260037Z 11010KT 19/17 A2993 RMK A01 T01860170  RH  090%=      5-min Rain = 0
KPD3 260038Z 10012KT 19/17 A2992 RMK A01 T01850167  RH  089%=      5-min Rain = 0
KPD3 260039Z 09013KT 18/17 A2992 RMK A01 T01840166  RH  089%=      5-min Rain = 0
KPD3 260040Z 09015KT 18/17 A2991 RMK A01 T01830166  RH  090%=      5-min Rain = 0
KPD3 260041Z 09016KT 18/17 A299 RMK A01 T01820165  RH  090%=      5-min Rain = 0
KPD3 260042Z 09016KT 18/17 A299 RMK A01 T01820166  RH  090%=      5-min Rain = 0
KPD3 260043Z 09016KT 18/17 A2989 RMK A01 T01820166  RH  090%=      5-min Rain = 0
KPD3 260044Z 10016KT 18/17 A299 RMK A01 T01820167  RH  091%=      5-min Rain = 0
KPD3 260045Z 11014KT 18/17 A299 RMK A01 T01830167  RH  091%=      5-min Rain = 0
KPD3 260046Z 12014KT 18/17 A2991 RMK A01 T01830168  RH  091%=      5-min Rain = 0
KPD3 260047Z 12013KT 18/17 A2991 RMK A01 T01840169  RH  091%=      5-min Rain = 0.01
KPD3 260048Z 12013KT 19/17 A2991 RMK A01 T01850170  RH  091%=      5-min Rain = 0
KPD3 260049Z 12013KT 19/17 A2991 RMK A01 T01850171  RH  092%=      5-min Rain = 0
KPD3 260050Z 12014KT 19/17 A2991 RMK A01 T01850172  RH  092%=      5-min Rain = 0
KPD3 260051Z 13013KT 19/17 A2991 RMK A01 T01850172  RH  092%=      5-min Rain = 0
KPD3 260052Z 13012KT 19/17 A2991 RMK A01 T01860172  RH  092%=      5-min Rain = 0
KPD3 260053Z 14011KT 19/17 A2991 RMK A01 T01860172  RH  092%=      5-min Rain = 0
KPD3 260054Z 14012KT 19/17 A2992 RMK A01 T01860172  RH  092%=      5-min Rain = 0
KPD3 260055Z 14012KT 19/17 A2992 RMK A01 T01860173  RH  092%=      5-min Rain = 0
KPD3 260056Z 15011KT 19/17 A2992 RMK A01 T01870173  RH  092%=      5-min Rain = 0
KPD3 260057Z 15010KT 19/17 A2992 RMK A01 T01870173  RH  092%=      5-min Rain = 0
KPD3 260058Z 15011KT 19/17 A2992 RMK A01 T01870173  RH  092%=      5-min Rain = 0
KPD3 260059Z 15010KT 19/17 A2992 RMK A01 T01860174  RH  092%=      5-min Rain = 0
KPD3 260100Z 16012KT 19/17 A2992 RMK A01 T01870174  RH  092%=      5-min Rain = 0
KPD3 260101Z 16014KT 19/17 A2992 RMK A01 T01870174  RH  092%=      5-min Rain = 0
KPD3 260102Z 16013KT 19/18 A2992 RMK A01 T01880176  RH  092%=      5-min Rain = 0
KPD3 260103Z 15014KT 19/18 A2992 RMK A01 T01890176  RH  093%=      5-min Rain = 0
KPD3 260104Z 16016KT 19/18 A2992 RMK A01 T01890177  RH  093%=      5-min Rain = 0
KPD3 260105Z 16015KT 19/18 A2992 RMK A01 T01900178  RH  093%=      5-min Rain = 0
KPD3 260106Z 16017KT 19/18 A2992 RMK A01 T01900178  RH  093%=      5-min Rain = 0
KPD3 260107Z 16016KT 19/18 A2993 RMK A01 T01910178  RH  092%=      5-min Rain = 0
KPD3 260108Z 16016KT 19/18 A2993 RMK A01 T01910179  RH  092%=      5-min Rain = 0
KPD3 260109Z 16016KT 19/18 A2993 RMK A01 T01910179  RH  093%=      5-min Rain = 0
KPD3 260110Z 16014KT 19/18 A2992 RMK A01 T01910179  RH  093%=      5-min Rain = 0
KPD3 260111Z 16012KT 19/18 A2992 RMK A01 T01920180  RH  093%=      5-min Rain = 0
KPD3 260112Z 16011KT 19/18 A2992 RMK A01 T01920181  RH  093%=      5-min Rain = 0
KPD3 260113Z 17011KT 19/18 A2992 RMK A01 T01920182  RH  094%=      5-min Rain = 0
KPD3 260114Z 17012KT 19/18 A2992 RMK A01 T01930183  RH  094%=      5-min Rain = 0
KPD3 260115Z 17010KT 19/18 A2992 RMK A01 T01920182  RH  094%=      5-min Rain = 0
KPD3 260116Z 18009KT 19/18 A2992 RMK A01 T01930182  RH  094%=      5-min Rain = 0
KPD3 260117Z 18011KT 19/18 A2992 RMK A01 T01930182  RH  094%=      5-min Rain = 0
KPD3 260118Z 18009KT 19/18 A2991 RMK A01 T01930183  RH  094%=      5-min Rain = 0
KPD3 260119Z 18010KT 19/18 A2991 RMK A01 T01930183  RH  094%=      5-min Rain = 0
KPD3 260120Z 18011KT 19/18 A2991 RMK A01 T01930184  RH  094%=      5-min Rain = 0
KPD3 260121Z 18011KT 19/18 A2992 RMK A01 T01940184  RH  094%=      5-min Rain = 0
KPD3 260122Z 18011KT 19/18 A2992 RMK A01 T01930184  RH  094%=      5-min Rain = 0
KPD3 260123Z 18012KT 19/18 A2992 RMK A01 T01930184  RH  094%=      5-min Rain = 0
KPD3 260124Z 18011KT 19/18 A2992 RMK A01 T01930184  RH  094%=      5-min Rain = 0
KPD3 260125Z 18011KT 19/18 A2992 RMK A01 T01930184  RH  094%=      5-min Rain = 0
KPD3 260126Z 19011KT 19/18 A2992 RMK A01 T01940184  RH  094%=      5-min Rain = 0
KPD3 260127Z 19009KT 19/18 A2992 RMK A01 T01930183  RH  094%=      5-min Rain = 0
KPD3 260128Z 19010KT 19/18 A2992 RMK A01 T01940183  RH  094%=      5-min Rain = 0
KPD3 260129Z 19011KT 19/18 A2992 RMK A01 T01930182  RH  093%=      5-min Rain = 0
KPD3 260130Z 19011KT 19/18 A2992 RMK A01 T01930180  RH  092%=      5-min Rain = 0
KPD3 260131Z 19011KT 19/18 A2992 RMK A01 T01930180  RH  092%=      5-min Rain = 0
KPD3 260132Z 20010KT 19/18 A2992 RMK A01 T01930179  RH  091%=      5-min Rain = 0
KPD3 260133Z 19009KT 19/18 A2992 RMK A01 T01930179  RH  091%=      5-min Rain = 0
KPD3 260134Z 19008KT 19/18 A2992 RMK A01 T01930178  RH  091%=      5-min Rain = 0
KPD3 260135Z 20010KT 19/18 A2992 RMK A01 T01920177  RH  091%=      5-min Rain = 0
KPD3 260136Z 21009KT 19/18 A2992 RMK A01 T01910177  RH  091%=      5-min Rain = 0
KPD3 260137Z 21009KT 19/18 A2992 RMK A01 T01910177  RH  091%=      5-min Rain = 0
KPD3 260138Z 21009KT 19/18 A2992 RMK A01 T01900177  RH  092%=      5-min Rain = 0
KPD3 260139Z 21008KT 19/18 A2991 RMK A01 T01900176  RH  092%=      5-min Rain = 0
KPD3 260140Z 22008KT 19/18 A2991 RMK A01 T01890176  RH  092%=      5-min Rain = 0
KPD3 260141Z 22008KT 19/18 A2991 RMK A01 T01890176  RH  092%=      5-min Rain = 0
KPD3 260142Z 22007KT 19/18 A2991 RMK A01 T01880176  RH  093%=      5-min Rain = 0
KPD3 260143Z 22006KT 19/18 A2991 RMK A01 T01880176  RH  093%=      5-min Rain = 0
KPD3 260144Z 22007KT 19/18 A2991 RMK A01 T01870175  RH  093%=      5-min Rain = 0
KPD3 260145Z 21006KT 19/18 A2991 RMK A01 T01870175  RH  093%=      5-min Rain = 0
KPD3 260146Z 22005KT 19/18 A2991 RMK A01 T01860175  RH  093%=      5-min Rain = 0
KPD3 260147Z 21006KT 19/17 A2991 RMK A01 T01860174  RH  093%=      5-min Rain = 0
KPD3 260148Z 21006KT 19/18 A2991 RMK A01 T01860175  RH  093%=      5-min Rain = 0
KPD3 260149Z 21006KT 19/17 A2991 RMK A01 T01850174  RH  093%=      5-min Rain = 0
KPD3 260150Z 21007KT 18/17 A2991 RMK A01 T01840173  RH  093%=      5-min Rain = 0
KPD3 260151Z 21007KT 18/17 A2991 RMK A01 T01840172  RH  093%=      5-min Rain = 0
KPD3 260152Z 21007KT 18/17 A2991 RMK A01 T01840172  RH  092%=      5-min Rain = 0
KPD3 260153Z 21007KT 18/17 A2991 RMK A01 T01840171  RH  092%=      5-min Rain = 0
KPD3 260154Z 21006KT 18/17 A2991 RMK A01 T01840171  RH  092%=      5-min Rain = 0
KPD3 260155Z 21005KT 18/17 A2991 RMK A01 T01830171  RH  092%=      5-min Rain = 0
KPD3 260156Z 20005KT 18/17 A2991 RMK A01 T01830170  RH  092%=      5-min Rain = 0
KPD3 260157Z 20004KT 18/17 A2991 RMK A01 T01820170  RH  092%=      5-min Rain = 0
KPD3 260158Z 18005KT 18/17 A2991 RMK A01 T01820170  RH  093%=      5-min Rain = 0
KPD3 260159Z 18005KT 18/17 A2991 RMK A01 T01820170  RH  093%=      5-min Rain = 0
KPD3 260200Z 18005KT 18/17 A2991 RMK A01 T01810170  RH  093%=      5-min Rain = 0
KPD3 260201Z 19006KT 18/17 A2991 RMK A01 T01810169  RH  093%=      5-min Rain = 0
KPD3 260202Z 20006KT 18/17 A2991 RMK A01 T01810169  RH  093%=      5-min Rain = 0
KPD3 260203Z 21006KT 18/17 A2991 RMK A01 T01810169  RH  093%=      5-min Rain = 0
KPD3 260204Z 21006KT 18/17 A2991 RMK A01 T01800169  RH  093%=      5-min Rain = 0
KPD3 260205Z 22005KT 18/17 A2991 RMK A01 T01800168  RH  093%=      5-min Rain = 0
KPD3 260206Z 21006KT 18/17 A2991 RMK A01 T01800168  RH  092%=      5-min Rain = 0
KPD3 260207Z 22006KT 18/17 A2991 RMK A01 T01810168  RH  092%=      5-min Rain = 0
KPD3 260208Z 22006KT 18/17 A2991 RMK A01 T01810167  RH  092%=      5-min Rain = 0
KPD3 260209Z 21005KT 18/17 A2991 RMK A01 T01800167  RH  092%=      5-min Rain = 0
KPD3 260210Z 21006KT 18/17 A2991 RMK A01 T01800167  RH  092%=      5-min Rain = 0
KPD3 260211Z 21006KT 18/17 A2991 RMK A01 T01790166  RH  092%=      5-min Rain = 0
KPD3 260212Z 22006KT 18/17 A2991 RMK A01 T01790166  RH  092%=      5-min Rain = 0
KPD3 260213Z 22007KT 18/17 A2991 RMK A01 T01790166  RH  092%=      5-min Rain = 0
KPD3 260214Z 23007KT 18/17 A2991 RMK A01 T01780166  RH  093%=      5-min Rain = 0
KPD3 260215Z 23007KT 18/17 A2991 RMK A01 T01780166  RH  092%=      5-min Rain = 0
KPD3 260216Z 23007KT 18/17 A299 RMK A01 T01790166  RH  092%=      5-min Rain = 0
KPD3 260217Z 24007KT 18/17 A299 RMK A01 T01790166  RH  092%=      5-min Rain = 0
KPD3 260218Z 25007KT 18/17 A299 RMK A01 T01790166  RH  092%=      5-min Rain = 0
KPD3 260219Z 26006KT 18/17 A299 RMK A01 T01790166  RH  092%=      5-min Rain = 0
KPD3 260220Z 26006KT 18/17 A299 RMK A01 T01790166  RH  092%=      5-min Rain = 0
KPD3 260221Z 26005KT 18/17 A299 RMK A01 T01790166  RH  093%=      5-min Rain = 0
KPD3 260222Z 25006KT 18/17 A299 RMK A01 T01780166  RH  093%=      5-min Rain = 0
KPD3 260223Z 25006KT 18/17 A299 RMK A01 T01770166  RH  093%=      5-min Rain = 0
KPD3 260224Z 24006KT 18/17 A299 RMK A01 T01770166  RH  093%=      5-min Rain = 0
KPD3 260225Z 25005KT 18/17 A299 RMK A01 T01790166  RH  092%=      5-min Rain = 0
KPD3 260226Z 25005KT 18/17 A299 RMK A01 T01800166  RH  091%=      5-min Rain = 0
KPD3 260227Z 25005KT 18/17 A2991 RMK A01 T01800166  RH  091%=      5-min Rain = 0
KPD3 260228Z 25005KT 18/17 A2991 RMK A01 T01800165  RH  091%=      5-min Rain = 0
KPD3 260229Z 25005KT 18/17 A2991 RMK A01 T01790165  RH  091%=      5-min Rain = 0
KPD3 260230Z 25005KT 18/17 A2991 RMK A01 T01790165  RH  092%=      5-min Rain = 0
KPD3 260231Z 24005KT 18/16 A2991 RMK A01 T01780164  RH  092%=      5-min Rain = 0
KPD3 260232Z 24005KT 18/16 A2991 RMK A01 T01780164  RH  092%=      5-min Rain = 0
KPD3 260233Z 23004KT 18/16 A2991 RMK A01 T01770163  RH  092%=      5-min Rain = 0
KPD3 260234Z 23003KT 18/16 A2991 RMK A01 T01770163  RH  092%=      5-min Rain = 0
KPD3 260235Z 23004KT 18/16 A2991 RMK A01 T01770163  RH  092%=      5-min Rain = 0
KPD3 260236Z 24004KT 18/16 A2991 RMK A01 T01760163  RH  092%=      5-min Rain = 0
KPD3 260237Z 23004KT 18/16 A2991 RMK A01 T01770163  RH  092%=      5-min Rain = 0
KPD3 260238Z 24005KT 18/16 A2991 RMK A01 T01770163  RH  092%=      5-min Rain = 0
KPD3 260239Z 23005KT 18/16 A2991 RMK A01 T01780164  RH  092%=      5-min Rain = 0
KPD3 260240Z 23005KT 18/16 A2991 RMK A01 T01780164  RH  092%=      5-min Rain = 0
KPD3 260241Z 23005KT 18/17 A2991 RMK A01 T01780165  RH  092%=      5-min Rain = 0
KPD3 260242Z 23005KT 18/17 A2991 RMK A01 T01790165  RH  091%=      5-min Rain = 0
KPD3 260243Z 23006KT 18/16 A2991 RMK A01 T01790164  RH  091%=      5-min Rain = 0
KPD3 260244Z 23006KT 18/17 A2991 RMK A01 T01800165  RH  091%=      5-min Rain = 0
KPD3 260245Z 23005KT 18/16 A2991 RMK A01 T01800164  RH  091%=      5-min Rain = 0
KPD3 260246Z 22004KT 18/16 A2991 RMK A01 T01800164  RH  090%=      5-min Rain = 0
KPD3 260247Z 19003KT 18/16 A2991 RMK A01 T01800164  RH  090%=      5-min Rain = 0
KPD3 260248Z 13003KT 18/16 A2991 RMK A01 T01790163  RH  090%=      5-min Rain = 0
KPD3 260249Z 11005KT 18/16 A2991 RMK A01 T01770161  RH  091%=      5-min Rain = 0
KPD3 260250Z 11004KT 18/16 A2991 RMK A01 T01750161  RH  092%=      5-min Rain = 0
KPD3 260251Z 11005KT 17/16 A2991 RMK A01 T01730162  RH  093%=      5-min Rain = 0
KPD3 260252Z 11005KT 17/16 A2991 RMK A01 T01730162  RH  094%=      5-min Rain = 0
KPD3 260253Z 11003KT 17/16 A2991 RMK A01 T01720163  RH  094%=      5-min Rain = 0
KPD3 260254Z 13003KT 17/16 A2991 RMK A01 T01710162  RH  094%=      5-min Rain = 0
KPD3 260255Z 13005KT 17/16 A2991 RMK A01 T01700161  RH  094%=      5-min Rain = 0
KPD3 260256Z 13005KT 17/16 A2991 RMK A01 T01690160  RH  094%=      5-min Rain = 0
KPD3 260257Z 14003KT 17/16 A2991 RMK A01 T01690160  RH  094%=      5-min Rain = 0
KPD3 260258Z 16004KT 17/16 A2991 RMK A01 T01690160  RH  095%=      5-min Rain = 0
KPD3 260259Z 17004KT 17/16 A2991 RMK A01 T01700161  RH  094%=      5-min Rain = 0
KPD3 260300Z 17004KT 17/16 A2991 RMK A01 T01700161  RH  094%=      5-min Rain = 0
KPD3 260301Z 16004KT 17/16 A2991 RMK A01 T01710161  RH  094%=      5-min Rain = 0
KPD3 260302Z 15004KT 17/16 A2991 RMK A01 T01720161  RH  093%=      5-min Rain = 0
KPD3 260303Z 14004KT 17/16 A2991 RMK A01 T01720161  RH  093%=      5-min Rain = 0
KPD3 260304Z 13004KT 17/16 A2991 RMK A01 T01720160  RH  092%=      5-min Rain = 0
KPD3 260305Z 13003KT 17/16 A2991 RMK A01 T01720160  RH  092%=      5-min Rain = 0
KPD3 260306Z 13003KT 17/16 A2991 RMK A01 T01720160  RH  092%=      5-min Rain = 0
KPD3 260307Z 12004KT 17/16 A2991 RMK A01 T01720160  RH  092%=      5-min Rain = 0
KPD3 260308Z 13004KT 17/16 A2991 RMK A01 T01710160  RH  093%=      5-min Rain = 0
KPD3 260309Z 14003KT 17/16 A2991 RMK A01 T01710160  RH  093%=      5-min Rain = 0
KPD3 260310Z 14004KT 17/16 A2991 RMK A01 T01710160  RH  093%=      5-min Rain = 0
KPD3 260311Z 16003KT 17/16 A2991 RMK A01 T01710161  RH  094%=      5-min Rain = 0
KPD3 260312Z 18003KT 17/16 A2991 RMK A01 T01710160  RH  094%=      5-min Rain = 0
KPD3 260313Z 17003KT 17/16 A2991 RMK A01 T01710160  RH  094%=      5-min Rain = 0
KPD3 260314Z 17004KT 17/16 A2991 RMK A01 T01700160  RH  094%=      5-min Rain = 0
KPD3 260315Z 18004KT 17/16 A2991 RMK A01 T01710160  RH  094%=      5-min Rain = 0
KPD3 260316Z 19004KT 17/16 A2991 RMK A01 T01710160  RH  094%=      5-min Rain = 0
KPD3 260317Z 19004KT 17/16 A2992 RMK A01 T01710160  RH  093%=      5-min Rain = 0
KPD3 260318Z 19003KT 17/16 A2991 RMK A01 T01710160  RH  093%=      5-min Rain = 0
KPD3 260319Z 19004KT 17/16 A2991 RMK A01 T01710160  RH  093%=      5-min Rain = 0
KPD3 260320Z 19004KT 17/16 A2992 RMK A01 T01710160  RH  093%=      5-min Rain = 0
KPD3 260321Z 19004KT 17/16 A2992 RMK A01 T01710160  RH  093%=      5-min Rain = 0
KPD3 260322Z 18004KT 17/16 A2992 RMK A01 T01710159  RH  092%=      5-min Rain = 0
KPD3 260323Z 18005KT 17/16 A2992 RMK A01 T01710159  RH  092%=      5-min Rain = 0
KPD3 260324Z 18005KT 17/16 A2992 RMK A01 T01720159  RH  092%=      5-min Rain = 0
KPD3 260325Z 18005KT 17/16 A2992 RMK A01 T01720159  RH  092%=      5-min Rain = 0
KPD3 260326Z 18005KT 17/16 A2992 RMK A01 T01710159  RH  092%=      5-min Rain = 0
KPD3 260327Z 17004KT 17/16 A2992 RMK A01 T01710159  RH  093%=      5-min Rain = 0
KPD3 260328Z 16004KT 17/16 A2992 RMK A01 T01710159  RH  093%=      5-min Rain = 0
KPD3 260329Z 12004KT 17/16 A2992 RMK A01 T01700158  RH  092%=      5-min Rain = 0
KPD3 260330Z 10007KT 17/16 A2993 RMK A01 T01690157  RH  093%=      5-min Rain = 0
KPD3 260331Z 09008KT 17/16 A2993 RMK A01 T01670157  RH  094%=      5-min Rain = 0
KPD3 260332Z 10007KT 17/16 A2993 RMK A01 T01670158  RH  095%=      5-min Rain = 0
KPD3 260333Z 11007KT 17/16 A2993 RMK A01 T01660158  RH  095%=      5-min Rain = 0
KPD3 260334Z 11007KT 17/16 A2993 RMK A01 T01660159  RH  095%=      5-min Rain = 0
KPD3 260335Z 11007KT 17/16 A2993 RMK A01 T01660159  RH  095%=      5-min Rain = 0
KPD3 260336Z 11007KT 17/16 A2993 RMK A01 T01660159  RH  096%=      5-min Rain = 0
KPD3 260337Z 10008KT 17/16 A2993 RMK A01 T01660159  RH  096%=      5-min Rain = 0
KPD3 260338Z 11008KT 17/16 A2993 RMK A01 T01650158  RH  096%=      5-min Rain = 0
KPD3 260339Z 10008KT 17/16 A2993 RMK A01 T01650159  RH  096%=      5-min Rain = 0
KPD3 260340Z 10009KT 17/16 A2993 RMK A01 T01650159  RH  096%=      5-min Rain = 0
KPD3 260341Z 11007KT 17/16 A2993 RMK A01 T01650159  RH  096%=      5-min Rain = 0
KPD3 260342Z 10007KT 17/16 A2993 RMK A01 T01650160  RH  096%=      5-min Rain = 0
KPD3 260343Z 10007KT 17/16 A2993 RMK A01 T01660160  RH  096%=      5-min Rain = 0
KPD3 260344Z 10006KT 17/16 A2993 RMK A01 T01660160  RH  096%=      5-min Rain = 0
KPD3 260345Z 09007KT 17/16 A2993 RMK A01 T01660161  RH  097%=      5-min Rain = 0
KPD3 260346Z 09006KT 17/16 A2994 RMK A01 T01660161  RH  097%=      5-min Rain = 0
KPD3 260347Z 09005KT 17/16 A2994 RMK A01 T01660161  RH  097%=      5-min Rain = 0
KPD3 260348Z 09005KT 17/16 A2994 RMK A01 T01660161  RH  097%=      5-min Rain = 0
KPD3 260349Z 09004KT 17/16 A2994 RMK A01 T01660161  RH  097%=      5-min Rain = 0
KPD3 260350Z 09003KT 17/16 A2994 RMK A01 T01670161  RH  096%=      5-min Rain = 0
KPD3 260351Z 08004KT 17/16 A2994 RMK A01 T01670161  RH  096%=      5-min Rain = 0
KPD3 260352Z 09004KT 17/16 A2994 RMK A01 T01670161  RH  096%=      5-min Rain = 0
KPD3 260353Z 09003KT 17/16 A2994 RMK A01 T01670161  RH  096%=      5-min Rain = 0
KPD3 260354Z 08003KT 17/16 A2994 RMK A01 T01670161  RH  096%=      5-min Rain = 0
KPD3 260355Z 09003KT 17/16 A2994 RMK A01 T01670160  RH  096%=      5-min Rain = 0
KPD3 260356Z 10004KT 17/16 A2994 RMK A01 T01670160  RH  096%=      5-min Rain = 0
KPD3 260357Z 10004KT 17/16 A2994 RMK A01 T01670160  RH  096%=      5-min Rain = 0
KPD3 260358Z 10004KT 17/16 A2994 RMK A01 T01670160  RH  096%=      5-min Rain = 0
KPD3 260359Z 10005KT 17/16 A2994 RMK A01 T01670159  RH  095%=      5-min Rain = 0
KPD3 260400Z 11005KT 17/16 A2994 RMK A01 T01670159  RH  095%=      5-min Rain = 0
KPD3 260401Z 11005KT 17/16 A2994 RMK A01 T01660158  RH  095%=      5-min Rain = 0
KPD3 260402Z 11005KT 17/16 A2994 RMK A01 T01660158  RH  095%=      5-min Rain = 0
KPD3 260403Z 11005KT 17/16 A2994 RMK A01 T01650158  RH  095%=      5-min Rain = 0
KPD3 260404Z 11005KT 17/16 A2994 RMK A01 T01650158  RH  095%=      5-min Rain = 0
KPD3 260405Z 11005KT 17/16 A2994 RMK A01 T01650157  RH  095%=      5-min Rain = 0
KPD3 260406Z 11004KT 17/16 A2994 RMK A01 T01650157  RH  095%=      5-min Rain = 0
KPD3 260407Z 11004KT 16/16 A2994 RMK A01 T01640157  RH  095%=      5-min Rain = 0
KPD3 260408Z 11003KT 16/16 A2994 RMK A01 T01640156  RH  095%=      5-min Rain = 0
KPD3 260409Z 11003KT 16/16 A2994 RMK A01 T01640156  RH  095%=      5-min Rain = 0
KPD3 260410Z 11003KT 16/16 A2994 RMK A01 T01640156  RH  095%=      5-min Rain = 0
KPD3 260411Z 10003KT 16/16 A2994 RMK A01 T01640156  RH  095%=      5-min Rain = 0
KPD3 260412Z 10003KT 16/16 A2994 RMK A01 T01640156  RH  095%=      5-min Rain = 0
KPD3 260413Z 10003KT 16/16 A2995 RMK A01 T01640156  RH  095%=      5-min Rain = 0
KPD3 260414Z 09003KT 16/16 A2995 RMK A01 T01640156  RH  095%=      5-min Rain = 0
KPD3 260415Z 09003KT 16/16 A2995 RMK A01 T01640156  RH  095%=      5-min Rain = 0
KPD3 260416Z 09003KT 17/16 A2995 RMK A01 T01650156  RH  095%=      5-min Rain = 0
KPD3 260417Z 09003KT 17/16 A2995 RMK A01 T01650157  RH  095%=      5-min Rain = 0
KPD3 260418Z 08003KT 17/16 A2995 RMK A01 T01650156  RH  095%=      5-min Rain = 0
KPD3 260419Z 08003KT 17/16 A2995 RMK A01 T01650157  RH  095%=      5-min Rain = 0
KPD3 260420Z 08003KT 17/16 A2995 RMK A01 T01650157  RH  095%=      5-min Rain = 0
KPD3 260421Z 07003KT 16/16 A2995 RMK A01 T01640156  RH  095%=      5-min Rain = 0
KPD3 260422Z 07003KT 16/16 A2995 RMK A01 T01640155  RH  095%=      5-min Rain = 0
KPD3 260423Z 07003KT 16/16 A2995 RMK A01 T01640156  RH  095%=      5-min Rain = 0
KPD3 260424Z 06002KT 16/16 A2995 RMK A01 T01640155  RH  095%=      5-min Rain = 0
KPD3 260425Z 06001KT 16/16 A2995 RMK A01 T01640155  RH  095%=      5-min Rain = 0
KPD3 260426Z 07001KT 16/15 A2995 RMK A01 T01630154  RH  095%=      5-min Rain = 0
KPD3 260427Z 06001KT 16/16 A2995 RMK A01 T01630155  RH  095%=      5-min Rain = 0
KPD3 260428Z 06001KT 16/16 A2995 RMK A01 T01630155  RH  095%=      5-min Rain = 0
KPD3 260429Z 05000KT 16/16 A2995 RMK A01 T01630155  RH  095%=      5-min Rain = 0
KPD3 260430Z 00000KT 16/15 A2995 RMK A01 T01630154  RH  095%=      5-min Rain = 0
KPD3 260431Z 00000KT 16/16 A2995 RMK A01 T01630155  RH  095%=      5-min Rain = 0
KPD3 260432Z 00000KT 16/15 A2995 RMK A01 T01620154  RH  095%=      5-min Rain = 0
KPD3 260433Z 00000KT 16/15 A2995 RMK A01 T01620154  RH  095%=      5-min Rain = 0
KPD3 260434Z 00000KT 16/15 A2995 RMK A01 T01610154  RH  095%=      5-min Rain = 0
KPD3 260435Z 00000KT 16/15 A2996 RMK A01 T01610153  RH  095%=      5-min Rain = 0
KPD3 260436Z 16000KT 16/15 A2996 RMK A01 T01610153  RH  095%=      5-min Rain = 0
KPD3 260437Z 15000KT 16/15 A2996 RMK A01 T01600152  RH  095%=      5-min Rain = 0
KPD3 260438Z 14001KT 16/15 A2996 RMK A01 T01590151  RH  095%=      5-min Rain = 0
KPD3 260439Z 16001KT 16/15 A2996 RMK A01 T01580150  RH  095%=      5-min Rain = 0
KPD3 260440Z 17001KT 16/15 A2996 RMK A01 T01570150  RH  095%=      5-min Rain = 0
KPD3 260441Z 19001KT 16/15 A2996 RMK A01 T01560149  RH  095%=      5-min Rain = 0
KPD3 260442Z 19001KT 16/15 A2996 RMK A01 T01550148  RH  095%=      5-min Rain = 0
KPD3 260443Z 18002KT 16/15 A2996 RMK A01 T01550147  RH  095%=      5-min Rain = 0
KPD3 260444Z 19002KT 15/15 A2996 RMK A01 T01540146  RH  095%=      5-min Rain = 0
KPD3 260445Z 19002KT 15/15 A2996 RMK A01 T01530146  RH  096%=      5-min Rain = 0
KPD3 260446Z 20002KT 15/15 A2996 RMK A01 T01530147  RH  096%=      5-min Rain = 0
KPD3 260447Z 20002KT 15/15 A2995 RMK A01 T01530147  RH  096%=      5-min Rain = 0
KPD3 260448Z 20003KT 15/15 A2995 RMK A01 T01530148  RH  097%=      5-min Rain = 0
KPD3 260449Z 20002KT 15/15 A2995 RMK A01 T01530148  RH  097%=      5-min Rain = 0
KPD3 260450Z 18002KT 15/15 A2995 RMK A01 T01540148  RH  097%=      5-min Rain = 0
KPD3 260451Z 18003KT 15/15 A2995 RMK A01 T01540148  RH  097%=      5-min Rain = 0
KPD3 260452Z 17002KT 16/15 A2995 RMK A01 T01550150  RH  097%=      5-min Rain = 0
KPD3 260453Z 18003KT 16/15 A2995 RMK A01 T01550150  RH  097%=      5-min Rain = 0
KPD3 260454Z 18003KT 16/15 A2995 RMK A01 T01560151  RH  097%=      5-min Rain = 0
KPD3 260455Z 18002KT 16/15 A2995 RMK A01 T01570152  RH  097%=      5-min Rain = 0
KPD3 260456Z 17003KT 16/15 A2995 RMK A01 T01580153  RH  097%=      5-min Rain = 0
KPD3 260457Z 17002KT 16/15 A2995 RMK A01 T01590153  RH  097%=      5-min Rain = 0
KPD3 260458Z 19002KT 16/15 A2995 RMK A01 T01590154  RH  097%=      5-min Rain = 0
KPD3 260459Z 19002KT 16/15 A2995 RMK A01 T01600154  RH  096%=      5-min Rain = 0

Page generated in 0.0824 seconds.